GFSSW_sfc_thetae_075.txt.gz
Theta_e
313 313 313 313 313 313 313 313 312 313 314 313 314 314 314 314 314 305 298 303 308 319 321 309 307 304 300 296 299 301 291 288 292 295 298 303 300 305 309 306 309 311 312 314 314
312 313 313 313 313 313 313 312 312 312 312 314 313 314 313 314 305 301 309 315 320 324 310 305 301 298 294 295 297 295 289 292 298 300 298 301 300 300 302 303 304 306 314 315 314
312 312 313 313 313 313 313 312 312 312 312 313 313 312 313 312 300 305 323 320 323 323 309 304 301 301 292 294 295 294 291 294 297 299 301 300 301 303 300 299 302 304 309 313 311
312 312 313 313 313 313 312 312 312 312 312 312 312 312 313 307 294 306 332 324 326 320 303 301 302 295 288 290 294 291 295 297 297 299 300 298 302 301 302 303 305 307 310 313 311
312 312 312 312 312 312 312 312 312 311 311 311 311 312 306 297 300 309 329 325 320 306 305 306 301 295 288 289 291 291 294 296 298 298 297 300 299 299 301 305 307 308 309 312 310
312 312 311 312 312 312 312 312 311 311 311 311 311 313 302 288 299 318 319 317 309 306 305 306 303 300 294 291 290 293 294 295 296 296 296 296 299 298 301 304 305 306 310 310 310
312 311 311 312 311 312 312 312 313 313 312 311 312 310 301 292 307 319 314 307 306 308 305 307 305 297 295 292 294 295 291 293 293 293 294 296 293 296 300 303 303 303 305 310 311
312 311 311 312 312 312 313 314 314 314 314 312 313 306 295 305 307 309 308 307 307 306 306 307 303 297 293 294 294 290 289 284 289 293 295 295 289 297 299 300 300 302 302 304 306
312 312 311 311 312 313 313 313 314 315 316 314 303 300 298 315 310 309 308 306 307 307 306 310 300 294 293 288 285 285 281 283 287 293 293 292 290 296 299 298 297 298 300 303 305
312 311 311 311 312 312 312 313 314 313 314 312 309 298 303 305 309 308 308 308 306 303 301 299 293 289 287 285 280 282 282 286 286 291 291 290 291 295 297 297 297 298 298 300 301
313 311 311 311 311 311 307 303 300 299 304 300 301 301 304 310 310 304 306 305 302 298 291 293 288 285 288 289 290 289 287 286 290 294 290 291 292 293 295 295 295 296 295 298 300
312 311 311 311 310 311 304 300 304 302 297 305 306 304 308 310 305 308 305 297 297 291 293 289 286 292 293 293 291 290 287 287 291 294 290 290 290 293 294 295 295 295 295 297 298
311 311 311 311 310 305 302 305 309 306 295 300 306 305 306 307 304 305 303 299 295 291 291 287 291 296 294 292 290 289 287 288 288 292 292 289 287 290 294 296 297 297 296 297 298
311 310 310 310 303 303 302 308 307 305 290 297 300 304 306 305 299 309 306 301 295 292 291 290 295 293 292 290 292 286 293 292 290 287 282 290 281 288 290 292 294 295 295 296 298
310 310 310 309 297 299 306 306 305 304 281 302 300 307 302 298 299 301 305 300 294 293 292 290 291 291 290 291 296 292 296 291 290 286 282 285 280 285 289 289 292 294 296 296 296
310 310 309 305 301 303 307 305 304 292 284 298 299 296 295 297 298 300 300 301 300 294 292 292 298 294 293 298 298 298 293 290 286 283 277 284 282 284 288 289 291 295 299 300 300
309 308 306 305 298 303 305 302 289 284 300 295 295 297 293 292 294 296 294 291 289 284 284 292 293 297 299 293 296 294 289 279 277 277 279 285 282 286 290 294 296 297 298 298 299
308 306 306 305 300 306 304 295 283 292 293 299 296 294 291 292 292 294 292 289 295 292 287 285 284 293 299 295 291 290 289 280 277 277 279 287 281 286 294 298 298 299 297 297 297
305 298 300 306 306 305 298 286 286 294 297 294 293 289 289 292 291 292 289 291 293 293 286 286 287 296 298 299 296 290 285 293 284 284 280 281 286 292 296 296 298 298 298 297 297
298 296 300 309 307 302 294 289 293 300 297 295 289 291 286 288 288 288 288 295 294 296 293 290 283 292 295 297 297 292 294 285 286 277 276 280 282 284 290 293 296 296 295 297 299
294 292 302 309 306 298 288 291 296 300 297 294 292 290 291 289 289 289 290 293 297 295 294 290 286 286 289 288 287 287 288 290 288 285 276 274 280 292 293 295 295 296 298 297 299
291 289 301 304 294 292 290 295 298 298 299 296 296 294 291 291 289 289 289 292 298 297 290 291 286 281 284 290 293 292 289 290 282 281 285 282 280 296 296 296 295 296 299 301 300
289 289 302 301 286 288 294 295 298 297 296 295 293 295 293 289 285 290 292 296 297 295 291 291 282 277 279 283 288 287 290 290 288 286 281 277 280 296 297 297 295 295 298 301 303
290 289 292 294 292 290 290 292 293 298 295 294 292 293 291 289 290 287 290 295 296 296 302 294 282 281 276 281 283 283 287 289 288 282 281 284 286 291 293 294 295 295 297 299 300
292 288 289 284 289 288 292 293 292 292 295 294 291 292 290 286 288 287 290 291 295 298 293 287 282 283 285 287 288 287 287 288 285 287 283 286 286 290 293 293 295 295 297 298 300
289 289 290 288 289 289 292 291 292 293 293 290 288 290 290 286 287 286 288 287 287 290 287 287 282 284 284 288 287 286 288 290 290 291 290 289 288 293 295 294 294 294 295 296 297
291 293 292 291 291 291 291 292 292 293 294 295 293 290 289 290 292 292 292 290 290 288 285 284 282 280 279 286 285 281 287 289 290 291 290 283 288 292 292 293 293 293 295 296 297

GFSSW_sfc_thetae_078.txt.gz
Theta_e
312 313 314 314 314 314 314 313 312 312 313 313 313 314 314 313 313 303 297 300 307 319 319 307 306 303 299 296 299 300 290 288 291 294 297 301 299 301 306 305 306 307 306 310 314
313 313 313 314 314 314 314 312 312 312 312 312 312 313 313 312 305 299 308 314 320 322 307 302 299 298 294 294 295 294 288 292 296 298 297 298 298 298 300 301 302 304 309 313 317
313 312 313 313 313 313 312 312 312 312 312 312 312 312 312 310 298 304 320 318 320 319 308 303 300 296 290 293 294 291 289 293 296 299 300 298 297 302 299 297 300 302 305 309 311
313 313 312 312 313 312 312 312 312 312 312 312 311 311 312 306 292 302 330 325 322 318 303 299 300 293 289 290 293 290 294 296 296 298 299 298 300 299 300 300 304 305 305 306 308
313 313 312 312 312 312 312 312 312 311 311 311 310 311 303 293 295 310 327 323 317 305 299 303 298 292 287 289 290 289 292 294 296 295 294 297 296 297 299 302 304 305 306 304 308
312 312 312 312 312 312 312 311 311 311 311 311 310 311 299 284 297 316 318 313 309 304 302 304 301 299 293 291 289 292 292 293 294 295 295 294 296 295 297 302 302 303 302 303 307
314 312 312 312 312 312 312 312 311 313 312 311 310 310 298 289 305 314 314 306 306 307 304 306 304 296 293 290 293 293 289 292 292 293 294 295 293 293 298 300 300 301 302 304 310
314 313 312 312 312 313 313 313 313 313 312 312 312 304 293 301 306 311 308 304 305 306 304 304 301 295 291 293 292 288 287 283 289 292 295 292 289 295 298 297 298 300 301 301 302
314 313 312 312 312 312 313 312 313 314 315 313 301 298 297 313 309 311 308 304 305 305 304 308 299 292 292 287 284 284 279 281 287 290 291 290 288 295 298 296 295 297 298 300 302
314 313 313 312 312 312 311 313 314 314 313 311 309 296 301 302 308 310 306 307 304 303 299 296 291 288 285 285 279 281 281 284 284 290 290 289 289 293 295 295 295 295 296 298 299
314 313 312 312 311 311 306 303 299 297 302 299 299 298 302 307 311 302 306 304 302 297 290 291 288 284 287 288 289 287 285 284 288 293 288 289 290 292 294 293 293 295 294 295 297
313 313 312 312 312 310 305 299 302 302 296 304 305 302 305 307 302 306 304 296 295 290 291 288 285 290 292 290 289 288 285 285 289 292 289 289 289 291 292 293 294 294 295 295 295
312 312 312 311 310 305 302 304 307 304 295 299 304 303 303 305 300 302 299 296 293 290 290 287 290 294 292 290 289 287 285 286 286 290 290 288 287 289 292 294 296 296 296 296 296
311 311 311 310 303 302 301 308 306 304 290 295 298 303 305 305 299 308 303 299 293 291 290 289 292 292 289 289 289 285 291 291 290 286 281 288 281 288 289 291 293 295 294 294 295
311 311 311 308 298 298 305 304 304 304 281 300 299 306 304 299 298 299 304 299 293 292 290 289 290 289 288 289 294 290 295 292 289 285 281 283 280 285 288 287 290 293 296 295 297
310 311 310 303 299 301 305 305 304 292 284 297 297 295 295 295 296 298 299 300 298 292 291 290 295 292 291 295 296 297 292 290 285 282 278 285 283 285 288 288 290 293 295 299 299
310 309 306 305 294 300 302 302 289 284 298 294 294 296 291 291 293 294 293 290 288 284 284 289 290 295 298 292 295 293 287 280 277 276 279 285 281 286 290 292 292 293 296 297 297
308 307 303 304 300 300 301 295 284 291 292 296 296 295 290 292 291 293 291 288 293 289 285 283 282 292 297 293 289 289 287 279 274 276 279 286 282 285 293 296 297 298 297 298 298
306 297 297 303 304 301 297 287 286 293 296 294 293 290 289 291 291 292 289 290 292 291 285 284 286 295 297 297 294 288 284 288 278 282 280 281 285 290 294 295 297 297 298 297 297
297 294 299 306 304 300 290 287 293 299 296 295 288 291 287 288 288 287 287 293 293 294 291 287 282 291 294 296 295 290 293 279 284 277 277 279 281 282 289 292 295 296 295 296 298
293 293 300 302 303 295 285 289 295 299 298 294 291 290 291 289 288 287 288 291 296 293 293 289 285 284 288 287 285 285 284 286 288 285 279 277 279 291 291 293 295 295 296 296 297
291 289 300 302 293 288 286 293 298 297 299 296 295 293 292 291 288 289 289 291 296 296 290 290 285 281 284 288 291 287 285 285 277 276 282 282 281 294 293 293 295 296 297 298 298
289 289 300 299 285 285 290 293 297 297 296 293 292 293 293 289 286 289 292 295 296 295 291 291 282 278 280 282 286 285 288 287 285 285 281 278 278 293 294 295 297 295 297 297 299
291 287 290 291 290 288 288 290 291 298 296 297 293 294 291 288 290 287 289 294 296 296 301 294 282 281 277 280 282 282 285 287 284 279 280 281 284 289 292 293 294 295 296 295 297
290 286 287 283 287 288 286 291 290 291 296 296 291 292 291 284 286 287 290 290 294 297 291 287 282 282 283 285 285 285 286 286 283 285 282 284 284 288 292 292 293 294 295 296 296
289 288 289 287 288 287 289 288 290 293 293 292 290 291 291 285 287 284 288 287 286 289 287 286 282 284 283 287 287 284 286 287 288 289 287 287 286 292 293 293 293 293 294 294 295
290 290 291 289 291 289 291 292 292 293 295 295 294 292 290 291 294 292 291 289 289 287 284 283 282 280 278 284 283 279 285 287 288 289 288 284 287 291 290 291 291 292 294 294 295

GFSSW_sfc_thetae_081.txt.gz
Theta_e
314 313 313 314 314 314 314 314 313 312 312 313 313 313 313 313 312 307 301 305 309 318 318 311 309 307 305 304 305 305 300 296 297 298 300 305 304 308 310 308 310 311 312 314 319
313 313 313 313 314 314 314 313 313 312 312 312 313 313 312 312 307 302 309 312 317 320 307 307 304 304 301 302 303 302 298 297 301 303 302 304 304 305 304 305 306 308 313 315 317
314 313 313 313 313 312 312 312 312 312 312 312 312 311 311 311 302 308 322 317 320 323 310 309 304 301 299 302 301 299 297 300 301 304 304 303 303 306 304 302 306 305 310 312 313
314 314 313 313 312 312 312 312 312 312 312 311 311 310 311 307 298 304 330 321 321 318 307 306 305 300 297 298 301 297 300 301 302 303 303 301 303 301 303 304 308 309 310 311 311
314 314 313 312 312 312 312 312 312 311 311 311 310 310 308 298 298 322 328 322 319 315 305 303 303 299 296 297 298 297 298 300 302 301 301 302 300 301 302 306 308 309 309 310 311
315 313 313 313 312 312 312 312 311 311 311 311 310 310 306 292 304 322 319 318 312 307 305 310 307 306 301 299 298 298 298 299 300 301 301 300 301 301 303 307 307 308 309 310 311
315 314 314 313 313 312 312 313 312 312 312 311 310 310 302 295 308 319 315 310 310 310 306 312 310 303 302 298 300 299 296 297 299 300 299 301 298 298 304 305 305 306 308 310 311
315 314 314 314 313 313 313 313 312 312 313 311 311 309 299 304 311 318 315 309 310 310 309 310 308 304 301 301 298 296 295 293 298 297 299 298 293 301 303 303 303 305 307 308 310
315 314 314 314 313 312 312 311 312 312 313 313 308 305 301 316 310 314 314 306 307 308 309 309 306 300 300 296 294 293 290 291 294 298 298 297 295 300 305 304 303 304 305 306 309
314 314 313 313 313 312 311 313 315 315 312 312 310 301 306 306 311 311 312 309 307 307 303 302 301 299 296 295 288 289 290 290 291 297 298 296 296 300 302 303 302 304 305 305 306
314 313 313 313 313 312 309 309 305 303 308 305 303 301 304 310 313 307 309 307 306 303 298 298 296 293 296 296 295 293 291 291 295 298 295 296 297 299 302 302 303 304 306 306 307
313 313 313 313 312 311 308 304 307 307 300 306 306 305 307 309 303 306 309 302 301 296 297 296 293 298 297 295 294 293 292 292 295 297 296 297 296 300 301 302 303 304 305 307 308
312 312 312 313 310 307 305 307 311 310 300 301 305 305 306 308 303 304 305 301 298 295 295 294 295 297 295 294 293 294 292 293 292 296 298 296 294 297 300 302 303 305 306 307 308
311 311 311 310 305 305 304 310 310 309 296 297 301 305 307 307 301 309 305 302 298 295 295 295 298 296 294 293 295 291 296 295 294 294 289 296 287 295 298 300 301 303 305 306 308
310 311 311 309 304 301 308 309 309 309 286 301 301 310 307 303 302 303 307 303 297 296 296 295 294 294 294 295 296 294 298 297 296 294 292 292 289 293 298 296 299 302 304 306 307
310 310 310 306 305 305 307 308 310 295 286 296 300 299 299 301 300 302 303 305 303 298 297 296 299 297 297 298 299 300 297 297 294 293 285 291 290 290 294 297 299 301 303 304 307
309 309 307 307 302 306 307 308 293 287 299 293 295 297 296 295 297 298 297 296 295 291 291 295 295 299 301 296 299 298 294 286 284 285 283 291 289 291 297 299 300 301 303 306 308
308 306 305 307 308 307 309 301 286 292 293 298 296 296 293 294 294 295 294 293 297 293 291 289 287 296 300 297 294 295 292 285 278 280 283 290 285 290 299 302 303 304 305 306 308
305 303 305 309 309 309 305 292 290 294 296 294 295 291 291 293 293 294 293 293 296 298 291 290 289 298 299 300 298 293 290 295 288 288 283 286 290 296 299 301 302 303 304 305 306
300 299 304 307 309 307 297 290 295 298 297 296 289 293 290 291 291 291 291 296 295 298 298 293 287 293 296 300 299 296 298 287 289 278 277 284 286 288 294 297 300 301 302 304 306
300 301 305 307 309 302 293 294 296 300 299 295 293 292 291 290 291 291 292 295 298 297 298 296 291 289 293 292 290 293 291 292 290 285 280 279 285 296 296 298 298 300 302 302 303
298 297 305 307 300 295 294 295 297 299 300 298 296 293 293 293 291 291 291 294 299 299 294 296 293 287 289 293 294 293 291 291 285 282 286 285 284 297 300 299 300 301 302 303 303
295 295 306 305 294 293 296 295 298 297 297 295 296 296 295 291 288 291 293 297 298 298 296 296 290 284 285 290 292 291 293 293 291 289 284 281 284 298 300 299 300 301 302 302 302
297 293 297 298 296 293 291 292 293 299 296 297 296 296 294 291 293 289 290 295 298 299 300 299 291 288 283 286 290 287 290 292 291 285 285 285 287 293 296 297 300 301 301 301 302
296 291 292 290 293 293 292 293 292 292 298 298 293 294 292 289 290 289 291 293 295 301 296 295 289 290 290 291 290 289 289 290 288 289 284 288 289 294 297 298 299 300 301 300 300
296 295 295 293 293 291 292 292 291 293 293 292 292 294 293 289 289 287 290 291 290 294 295 293 289 290 287 290 290 287 289 290 290 290 290 291 291 297 299 300 299 299 299 299 299
295 296 296 292 292 290 291 291 291 292 294 295 294 292 291 293 295 296 297 296 294 292 292 291 290 286 282 287 288 284 289 290 290 293 293 288 294 298 297 297 297 297 298 297 298

GFSSW_sfc_thetae_084.txt.gz
Theta_e
315 314 314 314 314 315 315 315 314 314 314 314 313 313 314 314 313 312 305 310 313 320 317 314 311 310 313 310 311 311 303 300 302 300 303 308 307 313 314 311 313 315 316 318 321
315 315 314 314 314 314 314 314 313 314 314 313 313 313 312 312 310 307 317 315 318 321 313 310 307 308 307 308 308 306 302 302 306 306 305 307 308 309 308 309 310 312 316 318 319
316 315 314 314 313 313 313 313 313 313 313 312 312 312 311 312 309 311 326 318 319 323 313 312 310 308 305 307 307 306 302 306 306 308 309 307 306 309 307 306 310 310 313 316 317
315 316 315 314 313 313 313 313 313 313 313 313 311 311 311 312 300 316 331 321 324 317 312 310 308 304 304 303 307 301 305 306 306 307 306 305 308 307 308 308 312 313 314 314 315
315 316 315 314 313 313 313 313 313 312 312 311 311 310 311 305 304 325 324 322 320 315 310 309 307 306 302 304 305 303 304 305 307 307 306 307 305 305 307 310 312 313 313 313 315
316 315 315 315 314 314 313 312 312 312 312 312 311 310 309 300 312 321 315 316 315 314 310 309 307 308 304 303 303 304 303 304 305 306 306 304 305 306 307 310 310 311 312 313 314
315 315 315 315 314 314 313 314 312 313 313 313 311 312 306 301 314 321 318 314 315 311 308 314 312 307 307 302 306 304 300 303 304 305 304 306 302 303 309 310 308 309 311 312 313
315 315 314 314 314 314 313 313 313 312 314 313 311 312 303 307 315 320 316 312 313 315 314 315 313 308 306 307 303 301 301 298 303 303 304 302 297 304 307 307 307 309 310 311 313
315 314 314 314 314 313 313 312 314 313 314 314 312 310 304 316 310 315 318 309 311 311 313 312 312 307 305 301 299 300 295 296 297 303 302 302 299 304 307 307 307 309 310 310 312
314 314 313 314 314 313 312 312 314 315 314 314 313 307 309 304 311 314 319 313 310 310 308 308 307 302 302 299 293 295 295 296 296 301 302 301 301 304 307 307 307 308 309 310 311
313 313 313 313 313 312 311 315 312 310 312 308 308 306 308 313 317 313 315 311 310 308 301 304 300 297 300 300 299 297 296 296 299 302 301 300 301 303 306 307 307 308 309 310 311
311 312 312 313 312 310 312 310 311 311 304 311 310 309 311 312 307 309 314 306 304 300 302 300 297 301 301 300 298 298 296 296 300 302 301 300 300 304 306 306 307 308 308 310 311
310 311 312 312 311 310 310 312 317 315 306 304 308 307 308 311 306 307 310 307 303 300 300 298 299 301 299 298 297 298 296 297 296 300 302 301 299 302 305 307 308 309 310 310 311
310 310 311 310 308 312 309 316 317 315 301 301 303 306 308 309 304 311 311 306 302 299 300 300 303 300 299 297 299 295 300 298 297 297 293 301 291 299 303 303 306 307 309 310 311
309 310 311 309 312 309 313 314 317 314 291 304 303 312 308 305 306 306 311 306 300 300 301 298 299 298 298 298 300 297 301 300 299 297 297 297 294 298 302 300 303 306 307 308 310
309 310 309 311 313 312 313 315 315 299 290 298 304 302 301 304 302 306 307 309 306 301 302 301 304 301 301 301 301 302 300 300 300 298 291 296 294 296 297 299 301 305 307 309 312
309 309 309 314 308 312 315 312 298 292 302 297 298 301 300 299 300 301 301 301 298 294 295 300 300 303 302 299 303 301 298 291 289 290 289 295 292 294 300 302 304 304 307 310 312
307 306 308 314 316 315 315 304 290 296 297 300 299 299 297 298 298 298 297 297 300 299 295 293 292 298 302 300 298 298 298 290 283 285 288 293 288 294 302 304 306 307 309 310 311
306 315 315 314 316 317 308 295 295 297 298 297 299 296 296 298 298 297 296 295 297 299 293 293 292 300 301 302 300 297 293 299 291 291 287 290 294 299 302 302 304 305 307 308 310
309 311 310 314 317 314 302 294 298 300 300 299 294 296 294 296 295 294 294 299 297 301 302 297 291 297 299 301 301 297 300 291 293 282 281 287 289 291 297 299 302 303 304 307 309
310 308 310 315 316 307 298 298 299 302 302 298 296 296 296 294 296 295 294 297 300 300 302 299 295 293 296 295 294 296 293 294 293 292 284 282 288 298 297 299 301 303 303 306 308
308 304 312 314 306 305 300 299 298 301 304 301 301 297 296 297 296 294 295 297 301 301 296 299 296 291 292 298 298 297 294 295 289 287 289 288 288 300 301 303 304 303 305 307 309
304 304 313 312 300 302 301 299 300 300 301 300 299 301 301 296 292 296 297 301 300 299 297 300 293 288 290 294 297 293 295 295 295 294 288 285 288 299 301 301 304 304 306 307 308
304 301 306 306 304 299 297 298 297 301 300 300 300 301 298 296 299 294 294 298 299 299 302 303 295 292 287 290 294 291 293 295 295 289 290 290 292 296 299 300 303 305 306 306 307
304 299 300 298 301 298 298 297 296 295 299 301 297 296 295 292 293 294 296 296 298 301 299 299 292 294 294 294 294 293 292 293 292 293 289 291 292 296 299 301 303 305 306 305 305
302 301 304 302 297 296 295 296 294 294 294 294 294 295 295 292 294 292 295 295 294 296 296 299 290 293 291 293 294 291 293 293 293 293 293 294 293 300 303 304 303 303 303 302 303
307 306 302 297 295 293 294 292 293 294 297 298 296 292 291 294 297 298 298 298 299 296 294 295 292 290 286 291 290 287 293 294 294 296 295 291 297 301 300 300 301 302 302 301 302

GFSSW_sfc_thetae_087.txt.gz
Theta_e
317 317 316 315 314 314 315 315 315 314 314 314 314 314 314 314 314 313 308 313 315 321 321 317 312 313 314 312 314 314 304 302 304 307 310 314 313 315 319 315 316 318 318 322 323
317 317 316 315 315 314 314 314 314 314 314 314 314 314 314 313 311 308 318 319 319 325 314 312 308 310 309 310 311 308 303 303 308 309 309 310 311 313 314 313 314 315 318 321 321
317 317 317 316 315 314 314 314 314 314 314 314 313 313 313 313 311 314 333 324 320 320 317 314 312 310 307 310 309 308 303 307 308 309 310 310 309 312 310 308 312 313 316 318 319
317 317 317 317 316 314 314 314 314 314 314 313 312 312 312 313 302 321 328 325 320 317 316 313 311 307 306 305 310 304 308 308 309 309 309 306 309 308 309 310 314 315 316 316 317
316 316 316 316 316 315 314 314 314 314 313 313 312 312 312 309 309 325 325 321 318 317 312 310 308 308 305 307 308 306 308 309 309 309 309 309 307 307 308 312 313 314 315 314 315
316 316 315 315 316 315 315 314 314 313 313 314 313 311 312 304 318 318 316 315 316 315 313 313 310 311 307 306 306 308 308 308 309 309 309 306 306 307 309 312 311 312 313 314 315
316 316 315 315 314 315 315 315 314 313 313 315 314 313 309 307 318 318 317 316 316 315 311 313 313 309 310 305 309 307 304 305 307 308 306 308 304 305 310 312 311 311 312 314 315
314 315 315 314 315 315 315 315 314 313 313 315 314 314 307 311 318 319 318 313 316 314 315 317 315 311 310 310 306 303 304 299 306 307 307 305 299 307 311 309 309 310 311 312 313
313 313 314 314 314 314 313 313 314 316 314 314 313 314 308 314 311 320 317 311 313 315 316 314 313 309 308 303 301 302 298 299 302 307 305 303 301 306 309 309 309 310 311 312 313
312 312 312 313 313 313 313 313 313 314 315 316 315 310 313 305 313 315 319 314 311 311 310 309 308 304 304 301 295 298 298 299 299 303 304 302 302 306 309 309 309 310 311 312 312
312 311 311 312 313 313 311 317 316 313 314 311 310 309 308 314 316 313 317 312 312 309 303 307 302 299 302 303 303 301 300 299 302 304 302 302 303 305 308 309 309 310 311 312 313
311 311 311 312 313 311 312 312 314 315 307 315 312 310 312 314 308 311 316 307 307 303 305 303 299 304 305 304 301 301 299 298 302 304 303 302 302 306 308 309 310 310 311 312 313
311 310 311 312 311 311 315 313 321 319 308 308 310 309 309 312 308 309 311 309 305 302 303 300 303 304 302 301 299 299 298 299 299 302 304 302 301 304 309 310 310 311 312 313 313
311 310 310 310 308 318 312 316 321 319 303 303 306 309 310 310 305 313 313 308 305 301 303 302 305 301 300 299 301 297 303 301 299 299 295 304 293 302 306 307 308 310 311 312 313
310 310 310 309 313 313 316 319 320 317 291 306 306 314 312 307 307 306 312 308 301 302 303 300 301 301 299 301 303 300 304 301 301 299 299 299 297 301 306 303 305 307 309 311 312
309 310 309 312 314 317 318 318 317 301 291 301 306 305 304 307 304 308 307 309 308 302 304 303 306 304 303 304 303 304 302 302 302 300 293 298 298 298 302 302 304 307 309 310 312
309 309 311 317 312 317 319 316 302 294 304 299 301 304 303 302 302 304 303 301 299 295 295 300 301 305 306 301 305 303 300 293 292 291 291 299 295 298 302 304 305 305 308 311 313
307 307 310 318 320 320 317 307 295 298 300 303 302 302 300 302 302 302 301 299 303 301 296 293 293 302 304 302 300 300 300 294 286 288 292 299 292 298 303 306 307 307 309 311 311
305 320 320 320 322 321 311 300 299 300 301 300 301 298 300 301 301 300 300 299 301 301 294 293 293 302 303 304 302 298 295 301 295 295 290 293 297 302 304 304 305 306 306 307 309
311 317 315 320 324 318 307 296 301 303 302 302 297 300 296 299 299 299 298 302 300 302 304 299 292 301 302 303 303 300 302 294 295 285 285 290 292 293 299 300 303 303 305 306 308
313 312 316 322 322 311 301 302 302 305 304 300 299 299 299 299 299 297 298 301 302 302 304 300 297 297 299 297 296 297 296 296 296 294 286 285 290 300 300 302 302 304 306 307 308
315 307 317 322 309 310 303 303 298 303 306 304 304 302 300 300 298 298 297 300 304 303 298 302 298 293 294 302 301 299 296 297 291 290 292 291 290 303 302 303 304 304 306 308 309
308 310 319 317 303 305 305 303 303 302 303 302 302 303 304 299 295 299 299 304 305 303 298 301 296 289 291 296 300 296 296 297 297 296 290 288 290 303 303 303 304 304 306 307 309
308 303 310 314 310 304 301 301 300 305 302 303 303 304 300 298 300 296 297 300 302 302 303 303 298 294 289 292 297 294 295 297 296 291 292 292 294 299 301 301 303 305 307 307 308
310 306 305 303 304 303 302 301 299 298 302 303 300 298 297 294 296 295 298 300 301 302 300 299 294 296 296 297 297 295 294 295 294 295 291 294 294 298 300 302 304 306 306 306 306
304 304 308 304 302 301 297 300 297 297 297 297 295 296 298 295 295 294 296 298 297 301 299 300 293 295 292 296 295 293 295 295 295 296 295 295 295 302 304 305 304 305 305 304 304
311 310 305 300 301 299 301 298 296 297 299 299 298 296 296 298 298 301 302 302 300 298 296 296 294 292 287 293 294 289 293 295 295 297 297 293 298 303 302 303 303 303 303 303 303

GFSSW_sfc_thetae_093.txt.gz
Theta_e
318 319 318 318 318 318 317 315 315 315 315 315 315 316 315 315 315 309 303 309 313 321 324 309 307 306 304 301 303 306 295 294 297 300 304 310 311 316 317 312 315 314 315 316 318
317 318 318 318 317 317 317 316 315 315 315 316 315 314 314 314 307 303 312 324 325 329 313 305 301 304 297 298 300 299 295 296 303 305 305 307 307 311 311 310 311 314 317 319 317
315 316 317 317 317 317 316 317 316 315 315 315 315 315 314 312 303 308 334 325 329 328 307 305 304 302 295 298 299 298 295 300 304 307 308 306 306 307 305 303 307 309 311 313 313
314 314 315 316 317 316 316 316 316 316 315 315 315 314 314 308 298 315 332 334 330 312 307 303 301 298 295 294 300 294 301 302 302 306 306 303 307 308 306 304 309 310 311 312 311
313 314 313 314 315 316 316 316 315 315 315 314 314 314 309 302 304 323 328 328 316 309 302 300 298 300 294 297 298 297 300 303 304 303 301 305 303 304 304 308 310 311 311 310 309
314 313 313 313 314 315 316 316 315 313 315 315 314 314 306 299 315 323 317 314 311 304 299 301 303 305 299 298 296 300 301 302 303 303 301 302 303 303 305 309 308 308 308 307 309
315 314 313 313 314 314 315 315 314 314 314 314 314 313 303 301 314 316 309 304 305 304 302 306 308 305 301 297 303 303 297 300 301 300 300 303 299 300 306 307 306 306 306 308 310
315 315 314 313 313 313 314 314 314 314 314 314 314 310 300 314 313 311 310 309 311 307 306 310 311 306 300 303 303 297 296 290 298 301 302 301 292 303 306 305 305 306 307 308 308
315 315 315 314 313 312 313 313 314 316 315 315 309 305 302 316 308 311 313 311 310 311 311 315 309 302 302 295 292 293 287 290 295 300 300 297 294 303 305 304 304 305 306 308 307
316 315 315 314 313 312 311 312 314 314 314 314 312 303 308 309 306 310 316 314 307 307 308 306 301 296 295 292 286 290 290 292 293 299 300 295 296 301 303 303 303 303 305 306 307
316 315 314 314 313 310 309 306 307 306 309 304 306 305 308 314 310 309 315 311 307 304 296 300 292 290 294 297 298 296 294 293 297 300 298 296 295 298 301 301 301 302 303 304 306
315 314 313 314 312 311 308 302 309 309 303 312 311 309 313 313 304 308 314 304 302 296 299 296 291 298 302 301 299 297 294 293 297 301 296 296 295 299 300 301 302 302 303 304 304
313 313 314 313 311 307 304 307 313 314 301 306 311 310 309 309 306 305 308 306 301 297 298 294 298 303 301 298 298 295 293 294 294 298 298 296 293 296 301 303 304 305 305 305 305
313 313 313 312 306 311 308 314 314 314 295 303 306 308 308 308 303 311 310 306 302 298 299 297 302 301 298 297 297 291 299 298 297 294 287 297 284 294 298 300 303 303 303 304 306
313 313 313 310 304 307 311 312 312 311 289 304 304 312 308 302 305 307 312 306 299 299 299 296 298 298 296 297 299 295 301 299 297 292 290 292 287 291 297 298 300 301 304 304 305
312 313 312 310 307 309 314 312 310 295 289 301 305 303 301 303 304 307 306 308 305 300 299 298 303 301 300 302 301 303 298 297 295 290 283 291 289 290 295 298 299 301 303 305 306
312 312 309 309 308 315 314 308 296 291 305 300 299 301 300 299 301 302 300 297 294 289 291 296 297 301 303 299 300 298 291 283 282 282 283 295 292 292 300 301 302 300 303 304 305
311 308 309 311 314 315 312 301 292 300 300 304 302 302 297 300 299 301 298 294 298 296 292 290 289 299 304 301 296 296 294 288 280 281 285 295 289 296 301 303 303 304 303 304 302
308 309 313 316 316 315 305 294 297 300 301 299 300 297 296 301 301 300 297 297 300 299 292 291 292 303 303 304 300 295 291 296 288 290 284 288 293 299 302 301 302 302 302 301 303
303 305 311 320 319 313 301 297 302 304 303 302 295 299 295 298 298 298 298 302 301 303 300 295 289 299 302 304 303 297 299 289 289 281 279 287 289 291 295 296 298 297 296 298 300
303 306 315 318 317 306 296 300 303 305 304 300 298 297 297 296 298 297 299 302 304 301 300 295 292 293 299 296 294 295 291 293 293 291 279 279 286 298 295 296 295 296 298 298 298
303 301 315 318 303 304 300 304 301 303 305 303 303 300 298 298 296 296 297 300 305 304 296 299 293 288 292 300 303 300 293 294 286 285 287 285 286 301 300 297 297 297 298 298 298
298 302 316 313 295 298 306 305 304 301 302 301 300 302 301 297 293 298 299 304 304 301 298 298 290 283 287 293 298 296 296 295 293 292 287 283 286 302 300 299 299 297 300 301 301
300 298 306 307 304 300 299 300 299 305 303 303 301 301 298 296 297 296 298 302 304 302 309 302 293 289 284 291 295 292 295 297 292 283 286 287 289 295 297 298 299 298 299 298 299
302 301 302 296 298 300 301 299 297 297 303 302 298 299 295 290 293 292 298 298 302 305 299 294 288 291 292 295 296 295 295 295 293 293 287 290 291 295 296 297 297 298 299 299 299
299 299 301 298 300 299 299 297 297 299 298 298 295 297 296 290 292 290 295 293 293 298 295 296 286 290 289 294 294 292 295 296 296 296 295 294 292 296 298 298 298 297 299 298 299
306 306 301 298 298 296 297 299 298 298 300 300 297 294 292 294 296 296 296 296 295 292 293 293 291 287 283 293 292 287 292 294 295 297 295 289 294 296 295 296 295 296 297 297 298

GFSSW_sfc_thetae_096.txt.gz
Theta_e
316 316 317 319 318 318 317 317 316 316 316 315 316 315 314 314 314 307 301 306 309 318 320 309 305 306 305 298 299 300 290 290 292 295 299 308 308 316 318 313 314 315 313 315 316
315 315 315 316 317 317 317 317 316 316 316 315 315 315 314 314 306 302 311 317 320 322 311 305 299 301 295 294 295 293 291 292 297 300 302 305 307 310 309 309 309 313 315 316 315
314 314 314 314 315 316 316 316 316 315 316 315 315 314 313 312 301 306 322 322 323 324 315 308 302 300 294 292 293 293 291 297 300 302 305 305 305 311 306 303 307 304 309 311 310
314 314 314 314 314 314 315 316 316 316 315 316 314 314 314 307 294 313 332 335 325 320 307 302 298 294 290 290 294 289 297 298 300 302 305 304 305 307 309 307 308 308 308 309 307
315 315 315 315 314 314 314 315 315 315 314 315 314 314 307 298 301 314 329 333 321 313 303 299 295 295 294 293 293 291 296 299 301 301 299 304 305 307 307 314 310 309 309 307 306
316 316 315 316 315 314 314 314 314 314 314 314 314 313 304 292 309 324 319 318 312 304 299 297 297 299 297 297 293 296 297 299 299 300 298 299 300 303 305 308 308 308 307 306 308
316 316 316 316 316 315 314 313 313 313 314 314 314 312 304 299 310 320 313 308 308 306 299 300 301 302 300 295 299 298 294 296 299 298 298 300 296 298 305 306 305 305 304 306 307
316 316 316 316 316 316 314 313 313 313 315 313 314 309 298 311 310 307 307 304 304 307 303 305 304 301 299 301 298 294 293 290 296 299 300 299 292 301 305 304 303 304 305 305 307
316 315 316 315 315 315 314 312 312 314 316 315 307 302 299 316 311 313 310 307 307 305 304 307 304 299 299 293 290 290 286 288 292 298 298 296 292 301 304 303 302 303 303 305 305
315 314 314 314 315 314 312 311 312 313 314 313 311 300 305 306 305 308 310 311 307 306 304 304 298 294 292 290 284 288 288 290 290 296 295 292 294 298 301 301 301 302 303 305 305
314 313 313 314 314 313 309 302 306 304 306 302 304 303 307 312 310 305 310 311 306 303 295 298 291 288 292 294 295 294 292 291 293 298 296 295 295 297 298 299 298 299 300 301 304
313 313 313 313 313 312 308 299 307 307 299 308 309 306 310 312 302 305 312 303 300 294 297 294 289 295 298 298 297 295 292 291 295 298 294 293 293 296 298 298 299 300 300 301 302
312 313 313 313 312 307 301 304 309 309 297 305 310 309 309 308 304 303 308 303 299 295 295 291 296 301 298 296 295 294 291 292 292 296 296 293 291 294 299 300 302 301 302 302 306
313 313 312 312 306 305 304 311 310 309 292 300 305 309 308 305 301 309 308 304 300 296 296 294 300 299 297 296 295 289 296 297 296 291 286 294 284 291 296 297 300 300 302 304 305
313 313 313 311 301 302 310 307 307 306 286 305 305 312 307 301 303 304 309 304 298 297 297 294 296 296 295 295 298 293 300 297 296 290 287 289 285 289 294 294 297 299 301 302 303
312 313 312 306 302 306 311 310 306 295 286 301 304 301 299 301 302 305 304 305 304 298 298 295 300 299 298 300 299 301 296 293 291 288 282 288 287 287 291 295 297 299 301 303 303
312 312 310 308 302 308 308 304 292 287 305 299 297 300 298 297 299 300 299 296 292 288 289 294 294 299 302 297 299 295 288 281 281 281 281 292 289 289 296 298 299 299 301 302 303
311 309 306 308 306 307 307 298 287 299 300 306 301 299 295 298 298 299 296 292 296 295 291 287 287 298 302 299 294 293 290 283 279 280 283 291 287 293 299 301 302 304 303 302 301
308 303 304 309 310 308 301 290 293 300 301 299 300 295 295 299 298 298 295 294 297 295 289 291 292 301 302 302 299 294 288 294 287 288 283 286 291 297 300 301 302 300 301 300 300
302 300 304 313 312 307 298 294 299 303 302 301 295 298 293 296 296 298 296 301 301 301 299 294 288 298 301 302 301 296 298 287 287 281 278 286 289 290 294 296 299 298 298 298 300
298 300 311 314 313 302 293 297 304 304 303 299 297 295 296 295 296 296 298 302 303 300 298 295 291 292 296 294 292 293 291 292 290 289 279 278 285 296 295 294 295 296 297 295 295
297 293 312 313 299 298 296 302 304 304 304 301 301 300 297 297 295 294 295 298 304 302 295 297 291 287 290 297 300 296 292 290 284 283 286 283 284 300 299 298 296 295 297 297 298
293 295 307 309 293 294 300 304 305 302 300 299 298 299 298 295 291 297 297 302 303 301 296 296 289 283 286 290 296 293 295 293 291 288 285 283 284 300 301 299 299 295 295 297 297
294 292 300 302 301 297 297 299 298 304 302 301 299 298 295 293 294 293 295 301 303 302 308 300 290 287 282 288 292 291 295 295 291 283 284 286 288 294 296 296 295 295 295 295 296
295 296 297 292 296 294 296 298 296 296 301 300 297 296 293 288 290 291 294 295 300 303 298 293 287 289 291 293 294 294 294 294 293 292 285 287 287 292 294 294 294 295 297 297 296
294 297 298 296 298 296 297 296 296 297 297 295 294 295 293 289 289 288 290 290 291 295 293 294 285 288 288 292 292 290 294 294 295 295 295 294 292 294 295 294 295 296 296 295 296
303 303 298 295 295 293 293 295 297 296 298 298 296 293 291 293 294 293 293 293 293 290 290 289 288 288 282 291 291 285 291 292 293 297 296 291 292 293 292 294 294 293 294 295 295

GFSSW_sfc_thetae_099.txt.gz
Theta_e
315 315 315 315 316 317 317 316 316 316 317 316 315 316 315 315 314 305 299 305 308 317 318 306 306 304 303 297 297 298 289 288 291 294 295 303 303 315 316 312 314 313 313 317 329
315 315 315 315 315 315 315 316 316 316 316 317 315 315 314 313 304 300 310 316 320 320 308 300 298 300 295 295 294 292 287 289 296 297 296 301 301 308 310 311 311 310 313 313 321
315 316 316 316 315 315 314 315 316 316 316 316 316 315 314 311 298 300 320 319 321 321 309 304 300 298 291 290 292 291 290 295 297 299 300 300 301 307 307 305 310 304 305 311 311
317 317 317 317 316 315 314 314 315 316 315 314 315 313 314 307 284 310 331 329 323 318 312 301 296 293 289 289 291 287 294 296 297 301 300 300 303 304 308 311 312 308 308 307 308
317 317 317 317 317 316 315 315 314 314 314 314 314 313 307 297 297 306 327 334 319 315 307 297 294 293 291 291 290 290 293 295 298 298 298 301 303 305 306 311 314 310 309 307 305
317 317 316 316 316 315 316 315 314 314 313 314 313 313 304 294 304 312 323 319 317 309 301 296 295 297 295 295 291 292 294 296 296 296 298 297 298 304 306 311 310 309 307 306 307
316 315 315 315 315 315 315 315 314 313 312 314 313 310 303 299 310 317 317 310 312 306 300 300 299 300 297 295 297 296 291 292 295 295 295 298 294 298 305 310 309 312 313 307 307
316 316 315 315 315 315 316 314 312 312 313 314 314 309 298 310 309 307 310 304 307 307 301 302 300 298 296 298 298 291 291 285 294 295 297 299 290 298 304 305 307 309 308 306 306
315 314 314 314 315 315 315 313 312 313 315 314 307 304 297 314 310 313 309 305 304 306 306 305 300 296 296 292 288 288 284 285 291 295 296 295 291 299 302 302 302 303 304 304 304
314 313 313 314 313 314 314 312 311 314 313 312 310 298 303 303 308 310 310 309 304 301 299 298 295 292 289 288 283 286 286 288 289 293 294 291 293 297 299 301 300 301 302 303 304
313 313 313 313 313 313 310 301 304 301 305 301 303 301 304 310 311 303 307 306 304 299 293 296 290 287 291 293 293 292 290 289 292 296 293 292 292 296 296 297 298 299 300 301 303
313 314 314 313 313 312 309 297 304 305 298 306 307 306 308 309 305 303 308 302 299 292 295 292 288 294 296 296 294 293 290 290 293 296 293 292 291 294 296 297 298 299 300 301 306
313 314 312 313 312 306 300 302 307 306 296 302 307 307 307 308 305 305 305 302 296 293 293 290 294 299 297 294 293 291 289 290 291 294 294 291 289 292 296 298 299 299 300 301 306
313 313 312 312 305 303 302 309 309 306 291 298 303 307 308 306 300 308 308 303 298 294 294 292 297 297 295 294 294 288 295 295 294 290 285 292 282 290 293 294 298 299 299 303 305
312 313 312 311 303 300 308 307 305 304 281 304 303 311 305 301 301 303 307 303 297 296 295 292 295 293 292 294 296 292 297 295 293 288 286 288 284 288 292 292 295 297 300 300 302
311 312 312 305 305 305 309 308 305 292 284 300 303 300 298 299 301 303 303 304 303 297 296 294 299 297 296 298 298 298 294 291 289 286 281 286 285 285 289 292 294 297 299 301 302
311 311 309 309 300 306 306 304 291 286 302 299 296 298 297 295 298 299 297 296 293 288 288 292 293 297 300 295 297 293 287 280 279 280 280 289 286 288 294 296 298 298 299 300 302
310 309 306 308 307 307 305 298 286 296 299 305 299 297 293 295 296 297 295 292 295 294 289 286 285 296 301 297 292 291 288 282 278 279 282 289 284 290 297 298 300 301 301 300 299
308 302 301 305 308 305 300 290 291 298 302 298 298 293 292 296 296 296 294 293 295 294 289 288 291 299 301 301 298 292 288 293 286 286 282 284 289 295 298 298 299 299 299 299 299
302 299 301 308 309 305 297 293 297 305 302 301 294 296 291 294 293 293 293 298 298 298 295 293 288 297 300 301 301 295 297 287 287 281 278 284 286 287 293 295 297 298 299 298 297
297 296 305 311 310 301 292 295 301 307 303 298 295 295 296 294 295 295 297 301 303 299 297 293 290 290 295 293 291 293 291 291 290 286 280 279 284 294 296 294 293 293 292 293 294
296 289 307 310 298 297 294 299 302 304 305 301 299 298 295 294 293 294 294 299 303 302 295 296 290 286 289 296 298 294 291 290 285 283 284 283 285 297 296 294 294 294 295 294 294
293 293 305 309 293 294 298 300 304 302 301 300 298 299 298 293 289 295 296 301 302 300 296 296 288 283 285 288 294 292 294 290 288 287 283 280 283 298 298 297 295 295 295 296 296
295 291 298 302 301 295 293 297 298 304 302 301 298 299 295 292 292 292 294 299 302 302 305 300 290 287 283 285 290 289 293 294 292 284 283 284 287 293 295 294 293 293 294 296 295
295 294 297 291 295 296 296 296 296 296 301 299 296 296 294 288 289 289 292 294 298 300 297 292 287 289 291 293 292 291 292 293 292 291 287 287 286 289 291 292 292 294 295 295 294
292 297 298 296 298 297 297 295 294 297 296 295 294 295 293 290 289 288 290 289 289 294 292 292 285 288 287 292 291 289 291 293 293 293 294 293 292 292 292 294 293 294 294 293 294
302 302 298 294 293 292 294 295 294 298 297 298 296 293 292 293 294 293 293 292 292 289 288 288 286 284 282 289 289 284 290 291 292 294 294 290 294 293 293 293 292 292 293 293 294

GFSSW_sfc_thetae_102.txt.gz
Theta_e
316 316 317 317 316 315 315 315 316 316 316 316 316 315 315 314 313 303 299 304 308 317 318 306 305 302 300 296 296 296 288 284 289 292 294 299 299 305 313 312 314 313 311 320 345
317 317 317 317 317 317 315 315 315 316 316 315 315 315 314 314 304 300 308 316 320 323 305 299 297 299 294 294 293 292 286 288 294 295 295 298 298 302 307 307 311 314 311 327 344
317 317 317 317 318 316 316 315 315 315 316 315 315 314 313 311 295 295 318 318 321 320 304 300 299 297 290 289 292 288 286 292 294 297 298 297 298 303 305 304 309 310 305 312 331
317 318 317 317 316 316 316 316 316 315 315 314 314 314 313 304 287 308 326 321 323 316 303 299 295 291 288 288 290 286 291 294 295 299 298 296 300 300 307 309 313 310 310 306 313
316 316 316 316 316 316 315 316 315 314 313 313 314 314 305 295 296 304 322 326 318 314 300 296 293 292 288 289 290 287 291 293 296 297 295 298 299 298 304 310 314 312 313 310 305
315 315 315 315 315 315 315 315 315 314 313 312 314 314 303 293 305 309 323 318 314 308 301 296 294 296 293 292 289 291 292 294 294 293 292 294 295 298 304 308 311 311 311 311 306
315 314 314 314 315 316 316 315 314 313 313 312 315 310 302 298 310 310 314 312 312 306 300 298 297 296 295 293 296 294 289 290 292 295 292 295 292 295 301 304 309 311 314 314 314
315 314 313 314 314 315 315 315 314 313 312 313 314 308 296 309 309 306 311 306 312 306 300 302 300 295 294 297 296 290 289 283 291 292 294 295 288 297 300 302 305 308 310 312 314
313 313 313 313 313 314 315 314 313 313 313 315 307 303 295 312 308 310 311 304 305 306 304 305 298 293 294 290 287 286 283 284 288 293 293 293 289 298 301 301 303 308 310 312 311
313 313 313 314 314 314 313 313 312 314 313 311 309 298 300 301 308 310 310 304 301 301 299 295 291 289 288 286 282 284 284 286 286 291 292 290 292 299 302 299 302 306 308 311 309
313 313 314 313 312 313 311 302 302 302 305 298 300 300 302 308 310 305 308 305 303 297 290 291 287 285 289 291 291 290 288 288 291 294 291 290 290 295 296 296 296 299 301 304 303
313 313 313 312 312 312 309 298 302 303 297 304 305 304 308 307 303 304 307 299 297 291 293 290 286 292 294 293 292 291 288 288 292 294 291 290 290 293 293 295 296 298 299 299 305
312 312 312 312 311 307 301 301 306 305 295 301 305 305 305 306 303 304 302 300 296 293 291 288 292 296 295 292 291 290 288 288 290 293 293 290 288 290 293 296 298 298 299 303 306
311 311 311 312 304 301 300 307 308 305 291 296 301 305 306 305 300 308 304 301 296 293 292 291 295 295 292 292 292 287 293 293 291 288 283 290 282 288 291 294 297 298 298 302 305
310 310 310 311 303 299 304 305 305 302 282 301 302 310 306 300 300 301 305 301 295 294 293 291 293 292 290 292 294 291 295 293 291 287 284 287 283 286 290 291 294 297 299 301 302
310 310 310 307 304 304 306 306 303 291 283 298 302 299 297 298 299 301 300 303 301 295 295 294 298 296 294 296 296 297 292 289 287 284 281 284 284 284 288 291 294 297 299 301 302
311 310 308 307 298 304 305 302 290 285 300 298 295 297 295 294 297 297 296 293 291 287 287 290 292 296 297 292 295 291 286 279 279 279 279 287 285 287 292 296 297 297 298 300 303
310 308 307 306 306 306 304 296 285 294 296 304 298 296 293 294 295 296 294 290 294 292 287 285 284 295 299 295 291 289 287 280 277 278 280 288 283 289 296 297 299 299 299 300 300
307 301 299 301 306 305 298 289 290 296 302 299 297 292 292 295 295 294 292 292 294 294 289 286 288 298 300 299 296 290 287 289 284 283 280 283 288 293 296 296 298 298 299 298 296
302 298 296 305 307 302 295 292 296 303 304 301 293 295 290 292 292 292 291 296 295 296 295 291 288 296 299 300 300 294 295 285 284 279 277 282 284 286 291 294 296 296 295 296 296
299 291 299 308 306 299 291 294 299 304 304 299 296 295 294 293 292 291 292 299 301 297 295 293 290 290 294 292 292 293 289 288 287 283 278 277 283 292 293 294 293 293 293 292 294
297 287 301 310 297 297 294 298 301 303 306 302 300 298 296 295 294 294 294 296 302 301 295 296 289 285 290 295 297 293 290 288 283 284 283 282 283 296 295 295 293 293 294 294 295
293 293 302 307 291 294 298 299 302 302 302 301 298 300 298 292 291 296 296 300 303 301 297 298 289 283 285 290 294 291 291 289 287 285 282 280 283 297 295 294 294 293 294 295 296
295 288 296 298 299 295 294 294 297 304 301 301 298 299 295 292 293 292 294 299 302 302 304 299 289 287 283 284 289 289 292 292 288 281 283 283 286 291 293 294 295 293 294 294 295
296 289 298 289 294 295 297 295 295 295 300 300 297 297 294 289 289 289 292 294 297 299 296 292 288 289 290 293 292 290 290 292 290 290 285 288 287 290 292 293 292 294 295 295 295
294 295 297 292 296 296 295 293 293 296 295 295 295 295 294 290 290 289 290 290 289 293 291 291 286 288 287 291 290 288 290 291 291 292 291 292 289 294 292 294 293 293 294 294 295
301 301 297 294 290 289 293 293 293 296 298 298 297 295 292 293 293 293 293 292 293 290 288 287 285 284 282 289 288 283 289 290 290 292 292 288 293 292 291 293 292 293 294 294 294

GFSSW_sfc_thetae_105.txt.gz
Theta_e
318 318 318 317 317 317 317 316 316 316 316 316 315 316 315 315 314 309 302 309 310 317 317 309 306 304 306 305 305 304 297 294 295 297 300 306 305 310 314 315 317 317 314 319 347
318 317 317 317 317 317 317 316 316 316 316 315 315 315 315 314 309 304 312 315 318 320 309 305 300 303 301 303 303 302 296 295 300 302 301 305 305 308 308 310 312 315 317 342 348
317 317 317 317 317 316 316 316 317 316 316 315 314 314 314 313 301 301 314 318 322 322 308 306 305 301 298 301 300 298 296 299 300 304 305 303 304 307 307 306 311 313 313 321 343
316 316 316 316 316 316 315 316 316 316 316 315 314 314 314 309 295 317 323 321 325 318 306 304 302 298 296 295 300 295 298 300 301 303 304 303 305 304 306 309 314 315 316 316 320
316 316 315 315 315 315 315 316 316 315 315 314 314 314 309 300 301 307 325 322 319 312 304 302 300 298 295 297 297 297 298 299 302 302 303 303 301 302 304 309 313 314 318 316 317
315 315 314 314 314 315 315 315 316 315 315 313 313 314 304 296 310 314 322 320 317 310 303 302 301 302 299 298 297 298 298 298 300 300 301 300 301 302 303 307 308 311 314 316 318
315 315 314 314 314 314 315 314 314 315 315 313 314 311 302 302 315 323 324 318 317 309 301 303 303 302 302 299 302 300 297 300 299 299 298 301 297 298 304 306 307 312 315 318 320
314 313 314 313 314 314 315 315 314 314 314 313 315 308 299 310 313 311 316 314 316 308 306 305 305 302 302 303 301 297 296 294 301 299 299 299 292 300 305 305 305 307 310 315 319
314 313 313 314 314 314 314 314 314 316 312 314 309 304 298 313 309 312 313 310 311 309 307 306 304 299 300 297 295 295 293 293 296 300 299 297 295 301 306 305 305 308 312 314 318
313 313 313 313 314 313 313 313 313 314 312 311 309 299 303 304 309 311 314 311 306 305 302 300 298 295 296 295 290 292 291 293 294 298 298 296 297 302 305 305 306 309 309 311 315
312 312 312 312 312 312 311 307 304 303 305 301 302 301 303 310 313 309 311 305 305 301 294 296 293 292 296 297 298 296 295 294 298 301 297 297 297 300 304 305 306 308 309 312 316
311 311 311 312 312 311 309 301 306 307 300 306 305 305 308 310 304 306 311 302 301 296 297 293 291 296 299 298 296 296 294 295 298 299 298 297 297 301 302 304 308 306 309 312 316
310 310 310 310 310 307 304 304 309 309 299 302 305 305 306 308 304 305 307 303 299 297 296 294 296 300 297 297 295 296 294 295 295 299 299 297 296 298 302 303 304 306 310 311 313
311 310 310 310 306 305 301 309 311 309 296 297 301 305 307 308 302 312 308 304 300 297 297 296 300 297 296 295 297 293 299 298 297 295 292 297 291 297 299 300 302 305 307 308 310
310 311 310 310 303 301 306 310 310 307 284 300 303 312 308 304 304 305 307 303 298 298 298 295 296 296 295 297 299 296 300 299 298 296 295 295 293 296 299 298 302 305 307 310 313
311 310 310 307 305 306 309 308 308 294 283 298 304 301 301 303 302 304 302 306 306 300 299 298 301 300 299 300 300 300 298 297 296 295 289 293 293 294 298 299 303 305 307 309 312
310 309 308 307 300 308 308 303 293 287 299 299 298 300 300 298 299 301 299 297 296 292 292 296 297 301 301 298 300 299 296 290 288 288 288 294 292 296 300 303 304 306 307 310 314
308 307 307 307 308 308 307 299 286 293 293 301 300 300 296 298 299 299 297 295 299 298 294 290 288 297 301 298 296 296 297 291 283 285 288 294 291 296 302 304 306 307 309 311 312
307 305 303 306 308 307 299 291 291 294 298 299 298 295 296 297 298 298 297 296 298 299 293 291 291 300 302 302 301 296 293 297 292 291 290 293 295 301 302 302 305 306 308 309 309
304 300 300 308 309 303 294 291 296 301 302 301 294 297 292 295 294 296 295 299 298 300 302 297 291 299 301 303 302 299 300 293 295 286 284 289 291 294 299 301 304 304 306 306 306
302 294 303 310 308 299 289 292 297 303 303 299 297 295 296 294 296 294 295 300 301 299 301 300 296 295 298 297 297 296 296 295 297 294 288 286 290 301 302 304 304 304 305 305 306
298 289 304 310 299 298 293 296 299 301 303 303 303 300 296 297 295 296 295 299 303 301 296 299 296 292 293 298 300 300 297 298 292 290 293 293 291 301 303 304 305 303 303 304 305
294 293 305 308 292 295 299 298 300 299 300 300 299 300 300 297 292 295 297 302 304 302 300 301 295 288 291 295 298 297 297 296 297 296 292 289 291 300 301 301 302 301 301 302 303
296 288 298 303 301 295 294 295 294 300 299 302 300 300 297 295 297 295 296 299 303 303 306 304 295 293 287 290 296 294 296 296 296 291 292 292 294 298 300 301 301 301 302 302 302
297 291 296 291 293 293 296 296 294 293 300 301 298 299 296 291 292 293 296 297 299 301 299 301 293 295 294 296 295 295 295 295 294 295 291 293 294 299 301 302 302 302 302 302 302
294 294 296 293 295 294 295 293 292 295 295 294 296 296 296 291 293 292 295 296 296 299 298 297 292 294 291 294 294 292 294 295 295 296 296 295 295 302 301 302 300 300 301 300 300
303 302 296 292 291 291 293 292 293 294 298 298 298 295 294 294 296 297 299 298 298 297 295 295 294 291 287 291 291 288 293 294 295 297 297 292 298 300 298 299 300 300 300 299 300

GFSSW_sfc_thetae_108.txt.gz
Theta_e
319 319 319 318 318 318 317 317 317 317 316 316 317 316 315 316 316 315 310 315 316 318 318 312 309 311 312 310 311 311 301 299 300 301 303 308 308 313 315 315 318 322 320 324 349
318 318 318 318 318 318 317 317 317 317 317 317 316 316 315 315 313 310 320 319 319 320 312 306 303 306 306 307 307 304 300 300 305 305 304 307 308 309 311 312 315 319 321 338 347
318 317 317 317 317 317 317 317 317 317 317 316 315 315 315 315 309 308 323 324 320 322 313 310 306 305 303 306 306 304 300 305 304 306 306 305 306 309 307 307 314 316 318 325 345
317 316 316 316 316 316 316 316 317 317 316 316 315 314 315 314 299 314 324 323 322 319 311 308 305 302 301 300 305 300 304 304 305 305 305 304 307 306 308 309 314 318 320 321 325
316 315 315 315 315 315 315 315 315 316 316 315 314 314 314 307 307 317 323 323 322 314 309 307 304 303 300 301 302 301 302 304 305 305 305 306 304 304 306 310 313 315 318 319 321
316 315 314 314 315 314 315 315 315 315 315 315 314 314 310 301 314 316 321 318 317 312 309 310 306 306 302 301 301 303 302 303 304 304 305 303 303 305 306 309 309 311 313 316 321
315 315 314 314 314 315 316 315 314 314 315 316 314 313 307 307 317 323 320 319 318 313 308 310 307 304 305 301 304 303 300 303 304 305 303 305 300 301 307 308 308 309 311 316 319
315 315 314 314 314 315 315 315 314 315 316 315 314 312 305 316 318 318 324 320 320 316 311 311 308 306 305 307 305 302 302 298 304 305 305 303 296 303 307 307 306 308 310 315 316
314 313 314 313 314 314 314 313 313 315 312 314 312 309 305 314 309 314 320 313 315 310 310 308 307 304 305 302 300 301 296 298 300 306 304 302 299 305 307 306 306 308 309 312 315
314 313 313 313 313 313 313 312 314 314 313 313 311 302 308 305 311 313 316 315 308 307 304 303 302 300 302 300 294 296 296 298 298 303 303 302 301 306 308 307 306 308 309 314 317
312 312 312 312 312 311 309 311 307 304 306 306 307 307 307 312 316 311 313 312 308 304 298 301 297 295 299 302 302 300 298 298 302 305 303 302 303 305 307 307 307 308 311 314 317
312 313 311 312 312 311 310 306 310 311 304 310 310 309 312 313 308 309 314 305 302 297 301 298 295 301 303 303 301 300 298 299 302 304 302 303 302 306 307 307 308 309 312 314 316
312 312 311 312 311 310 308 310 316 315 305 306 310 309 309 311 307 306 309 306 301 298 299 298 300 302 301 300 299 299 298 299 299 302 304 302 301 303 307 308 310 312 315 315 315
312 312 311 311 308 310 305 310 316 315 299 300 303 308 310 310 305 313 311 307 303 299 301 300 304 301 300 298 300 296 302 300 299 298 295 303 294 301 305 306 308 310 312 313 315
311 311 311 311 306 304 308 315 316 314 285 302 305 315 311 306 307 309 313 307 300 300 302 298 300 300 298 299 302 298 303 301 300 299 299 299 296 300 304 303 306 309 311 313 316
311 311 310 307 309 309 311 312 311 296 285 297 307 305 304 306 306 309 307 309 306 302 303 301 305 303 301 302 303 304 301 301 301 299 293 298 297 298 301 303 306 309 312 313 315
310 310 309 308 304 311 312 306 293 287 298 297 301 305 303 301 302 304 302 300 296 293 295 298 299 303 304 300 303 302 299 292 290 291 290 299 296 298 305 307 308 310 312 314 317
309 307 310 310 312 311 311 299 286 292 295 301 299 302 299 302 301 301 300 297 300 300 296 293 291 299 303 301 299 299 299 293 286 288 292 299 293 300 307 310 311 312 315 317 319
306 310 308 314 313 311 300 290 290 294 297 298 300 297 296 298 300 300 299 297 299 302 295 294 294 302 302 304 303 299 296 302 296 296 293 296 299 304 308 308 310 312 314 316 317
306 306 306 313 313 307 296 289 293 299 299 301 294 298 294 296 295 298 298 301 299 303 305 300 294 300 301 304 305 302 304 295 297 288 287 292 295 297 303 305 309 311 313 315 315
305 300 310 313 310 300 293 293 295 298 299 299 297 296 296 294 295 295 298 301 303 302 304 303 300 298 303 300 298 299 298 300 300 297 291 289 292 305 304 307 309 311 313 313 314
302 294 310 313 299 300 296 299 298 299 302 302 302 299 297 298 294 296 298 300 306 305 299 303 300 295 297 303 305 304 301 301 294 293 296 294 293 307 308 310 312 311 312 313 315
297 298 310 311 294 293 299 298 299 300 298 300 299 301 301 298 292 293 299 304 306 304 302 304 299 293 294 299 303 300 302 303 302 301 294 292 293 305 307 308 311 310 310 311 312
299 292 300 307 303 296 294 295 296 301 299 302 301 302 299 297 301 297 296 301 306 306 309 307 302 297 291 294 301 297 299 301 301 294 295 296 297 302 305 306 308 308 309 308 309
300 294 298 292 295 296 297 296 294 293 300 302 298 300 298 293 295 295 295 296 302 304 306 306 298 299 298 298 298 297 298 300 298 299 294 297 297 301 305 307 308 309 309 308 308
295 294 294 292 297 295 295 294 292 293 294 293 294 298 300 296 294 292 295 297 297 300 300 304 298 299 294 299 298 295 299 300 299 299 299 300 299 305 308 308 308 308 307 307 307
303 303 294 292 293 292 294 293 294 297 297 299 298 296 296 297 300 301 301 302 303 300 300 300 300 298 292 297 297 292 297 298 299 301 300 296 301 306 304 306 307 307 307 306 306

GFSSW_sfc_thetae_111.txt.gz
Theta_e
319 319 319 319 319 319 319 318 318 318 318 318 318 317 317 317 316 316 313 318 320 325 317 316 311 310 313 311 312 312 303 300 303 304 306 312 310 314 317 314 317 321 323 327 340
318 319 318 318 318 318 318 318 318 318 318 318 318 317 316 316 314 312 322 327 322 321 311 310 307 308 308 308 310 307 302 303 308 309 307 309 310 311 312 312 314 318 325 327 334
317 317 317 317 317 317 316 317 317 318 318 318 317 316 316 317 312 313 333 326 323 321 314 311 309 308 305 308 308 307 302 307 307 308 309 308 309 311 309 309 313 314 320 325 335
316 316 316 316 316 316 315 315 315 316 316 318 317 316 316 315 302 319 326 326 324 317 314 310 307 303 303 303 308 303 307 307 308 308 308 306 308 307 309 310 314 316 321 323 323
316 316 315 315 315 316 316 316 316 316 316 316 316 316 314 309 311 322 326 327 321 316 313 310 307 304 302 304 306 304 306 307 308 308 308 308 306 306 308 311 314 315 319 322 323
316 315 315 315 315 315 316 316 316 315 315 315 316 315 310 304 321 324 319 318 315 317 312 312 308 309 305 305 304 306 305 306 307 306 307 305 305 306 308 311 311 313 314 317 321
314 315 315 315 315 316 315 315 315 314 314 316 317 313 308 310 321 321 321 317 319 317 311 314 313 308 307 304 308 306 301 304 305 306 305 307 302 303 308 310 310 310 312 314 317
315 314 314 314 313 314 315 314 314 314 315 317 316 311 305 320 322 320 320 318 319 320 316 315 314 308 307 309 305 301 302 298 305 306 306 305 298 306 310 309 308 309 310 312 315
314 314 314 313 313 313 313 313 312 314 316 315 312 309 307 319 314 319 322 316 317 318 316 313 311 305 305 301 299 302 296 299 302 307 306 304 301 307 310 309 308 309 310 311 313
314 313 313 313 313 312 312 312 314 313 314 314 313 306 311 309 315 316 322 319 314 312 308 305 304 301 302 300 294 297 296 299 300 305 306 304 303 307 310 310 308 308 309 311 312
314 313 313 313 313 312 311 312 310 305 308 309 309 308 311 315 316 312 318 315 312 307 300 302 297 296 299 302 302 303 302 299 303 306 304 304 304 307 310 310 309 309 309 310 312
314 314 313 312 312 312 310 307 309 314 305 312 312 312 315 315 308 310 316 308 305 299 302 299 295 301 303 303 302 302 300 300 303 306 305 304 304 308 309 309 310 310 310 310 312
313 312 312 312 311 312 312 310 314 315 305 307 310 311 312 314 308 309 310 308 304 300 299 296 299 302 302 302 300 301 299 300 300 304 306 304 302 305 309 310 310 311 312 313 313
312 312 312 311 308 311 306 313 315 319 299 299 305 309 312 312 306 314 312 308 304 299 300 299 303 301 301 300 302 298 303 302 301 300 296 306 295 304 307 307 308 311 313 314 316
311 311 311 310 307 305 309 313 315 315 285 301 306 316 312 308 308 308 314 308 302 301 300 298 300 300 299 300 303 300 304 302 301 300 299 300 298 302 307 304 307 310 313 315 316
310 310 310 309 311 311 314 313 310 295 285 297 307 306 306 307 307 310 309 310 308 303 303 302 307 305 303 304 304 305 302 302 302 299 293 298 298 299 302 305 307 310 312 314 315
310 310 309 311 306 314 315 307 291 286 298 296 298 304 305 303 304 304 303 302 298 295 295 299 301 305 305 301 304 303 300 292 290 291 291 300 298 300 307 307 309 310 312 314 317
309 307 310 314 315 314 311 298 285 291 294 300 299 304 297 303 303 302 301 299 302 301 295 293 292 301 304 302 300 300 300 293 287 288 292 300 295 300 309 311 312 314 314 316 318
306 312 311 314 317 315 303 291 290 293 296 295 297 295 295 300 300 298 302 300 303 302 295 294 295 303 304 304 304 300 297 303 297 297 293 295 300 307 309 309 310 313 315 317 319
307 308 308 316 317 309 298 290 294 298 298 298 293 295 294 296 297 296 298 303 301 304 304 299 294 301 302 305 305 302 305 296 297 289 288 293 296 296 304 306 308 310 313 317 320
307 301 313 318 315 300 292 294 297 301 300 295 294 294 297 295 294 294 296 302 303 301 303 302 300 297 302 299 298 300 299 301 300 297 291 290 294 307 305 308 308 311 315 317 318
304 296 312 315 298 300 295 296 298 301 304 301 300 295 296 296 294 293 294 300 306 305 298 303 300 293 297 303 305 304 301 302 296 292 297 295 293 309 307 310 312 312 315 317 318
297 300 310 310 293 295 299 297 299 300 300 300 299 302 301 297 294 296 297 301 304 306 301 305 298 294 293 300 304 301 303 302 302 302 296 292 294 308 309 309 311 312 314 315 316
297 293 300 307 304 294 294 295 295 301 298 297 298 301 300 299 301 296 296 297 303 307 309 309 301 298 294 297 301 298 302 303 300 293 295 294 296 302 304 306 308 311 314 314 315
299 296 297 291 294 296 295 295 294 294 297 297 298 300 297 294 295 295 298 299 303 309 308 307 298 301 299 301 302 300 299 300 300 300 296 299 298 300 306 308 310 313 313 312 311
294 292 294 292 297 295 295 294 293 294 294 294 293 297 299 291 297 290 297 298 297 305 306 308 299 301 296 301 300 298 301 302 302 302 301 301 299 307 309 310 308 309 311 310 311
301 300 295 291 294 292 294 291 292 296 297 298 296 297 294 294 302 303 304 304 300 301 304 305 301 299 294 298 297 294 299 299 301 303 301 297 302 307 306 307 309 310 310 309 310

GFSSW_sfc_thetae_114.txt.gz
Theta_e
318 318 319 318 319 319 318 318 318 318 319 319 319 319 317 317 317 315 310 316 321 327 316 310 310 309 310 309 311 311 301 298 300 302 304 310 308 314 319 315 316 319 321 326 344
317 317 318 317 317 318 317 317 317 317 318 318 319 319 318 318 312 310 320 328 332 330 315 309 308 306 304 306 308 305 300 300 305 307 306 309 309 310 311 311 312 314 321 325 329
316 317 317 317 316 317 317 316 316 316 317 317 318 318 318 316 309 312 335 331 331 327 316 312 311 307 302 305 306 305 301 305 306 308 309 308 308 311 309 308 312 312 316 322 325
316 316 317 316 316 317 317 317 317 317 317 316 316 316 318 313 301 315 334 332 331 319 314 308 308 303 301 301 306 302 305 306 307 308 308 306 309 307 309 309 314 315 317 319 324
316 315 315 316 316 316 317 316 316 316 316 316 315 316 313 307 307 320 332 328 321 316 310 307 305 303 300 302 305 303 305 307 308 308 308 309 306 306 307 311 313 313 315 316 323
316 316 315 315 315 315 316 316 316 316 315 315 315 316 309 300 319 321 323 322 318 314 309 308 307 307 304 302 302 305 306 306 307 307 307 305 305 306 307 311 311 312 312 314 317
316 315 314 314 314 314 314 314 314 315 314 315 316 316 306 306 320 323 321 318 316 312 308 312 312 308 306 302 306 305 301 304 305 306 305 306 302 302 308 309 308 310 311 313 315
316 315 315 314 314 314 314 314 313 313 313 314 318 313 302 317 321 317 320 317 317 315 315 314 314 310 307 308 305 302 301 296 303 304 305 304 297 304 308 308 307 308 310 311 314
315 315 314 314 314 314 314 313 314 314 315 316 312 308 303 322 313 319 320 315 315 317 317 316 312 307 306 300 298 300 294 296 298 305 304 302 298 305 309 309 308 309 310 311 312
315 314 314 314 314 313 313 312 314 313 314 314 313 303 308 308 316 317 320 319 313 312 311 310 306 301 301 298 290 295 296 298 298 303 305 302 302 306 309 309 309 308 309 310 311
314 314 313 313 313 312 311 310 307 304 308 306 306 306 310 316 319 315 318 316 314 309 303 306 298 295 298 299 300 299 299 298 301 304 304 302 303 306 308 308 309 310 310 310 311
313 314 313 312 312 311 309 305 306 310 300 309 310 310 313 315 309 311 317 310 308 302 304 300 295 299 301 301 299 299 298 299 302 305 304 303 303 307 308 309 311 311 311 311 312
312 313 313 312 311 310 312 311 314 311 299 301 305 307 309 312 308 308 311 311 305 302 300 296 299 301 299 299 298 298 297 299 300 303 305 303 300 304 308 310 311 311 311 312 313
311 311 311 311 306 309 304 310 313 314 296 297 302 306 308 311 304 313 312 310 305 300 300 299 302 300 298 297 299 296 302 302 301 299 294 303 292 303 306 307 308 309 311 311 313
310 311 310 310 305 303 308 313 313 309 282 299 305 314 310 305 307 307 314 308 302 301 301 298 298 298 297 297 301 299 304 301 301 299 298 298 295 300 306 304 306 309 311 313 316
309 310 309 307 308 309 313 313 309 291 282 296 304 305 305 306 306 308 308 310 308 303 303 301 304 302 301 302 303 304 302 302 301 298 291 296 296 297 301 305 307 310 310 313 314
309 309 307 308 303 313 314 308 290 284 296 294 296 302 301 302 303 304 302 301 298 294 295 298 299 302 304 300 303 302 299 291 289 290 289 298 296 299 306 308 309 309 311 314 317
307 306 308 310 314 314 310 296 284 291 292 297 296 297 295 299 297 299 300 298 302 299 295 293 291 299 304 301 298 299 299 292 286 287 290 298 293 298 309 310 312 312 313 314 318
305 308 308 312 314 314 302 289 288 292 296 295 296 293 294 297 297 295 296 299 302 303 295 294 294 302 304 304 303 299 295 301 295 297 292 295 299 305 308 308 309 311 313 315 317
303 305 307 315 317 310 297 290 292 296 297 297 290 293 290 294 294 294 295 301 301 304 305 299 293 300 302 304 303 301 303 295 296 288 286 293 295 296 303 306 308 310 313 316 319
304 298 306 318 316 304 291 291 294 300 300 296 295 293 293 293 294 293 293 300 301 301 303 301 298 296 301 299 297 297 297 298 300 297 291 289 294 304 305 307 307 310 314 317 319
300 292 307 312 300 300 294 295 296 298 302 299 300 298 297 295 292 295 294 297 304 304 299 302 299 292 296 303 304 302 299 300 293 293 296 294 293 306 308 310 310 309 315 317 319
294 297 308 308 290 292 294 295 297 298 297 298 297 300 300 297 292 295 298 302 303 302 301 303 297 290 293 299 303 299 300 303 304 303 296 293 292 307 309 308 309 308 312 316 317
295 291 299 302 299 293 290 293 293 299 298 300 298 300 298 296 296 295 297 300 302 303 306 305 299 295 290 295 300 297 298 301 302 297 296 296 297 303 305 306 310 311 313 313 312
298 294 296 289 291 292 294 294 291 291 298 298 294 293 293 291 291 294 299 299 300 302 303 304 295 297 295 300 300 300 298 300 298 299 295 297 297 302 305 307 310 312 313 312 312
294 292 296 290 294 292 293 292 292 293 294 293 292 294 295 294 296 293 297 298 296 301 299 306 297 300 297 299 298 300 301 301 299 299 300 300 296 304 308 308 307 311 312 311 310
300 301 294 290 292 290 291 291 292 294 296 297 296 295 294 295 299 300 302 301 303 300 303 305 301 299 291 297 297 295 300 301 302 304 303 298 303 308 306 306 308 310 311 310 309

GFSSW_sfc_thetae_117.txt.gz
Theta_e
318 316 317 317 317 317 317 316 316 317 317 317 318 317 317 317 316 311 305 312 316 323 321 314 307 306 303 300 302 303 294 291 293 295 296 303 302 309 313 311 314 316 314 341 345
317 315 316 316 315 315 316 317 316 315 317 317 318 318 318 318 309 305 315 326 327 329 318 310 306 302 296 298 298 298 292 294 299 299 299 301 303 304 307 309 308 312 319 340 342
316 315 315 316 315 316 315 315 317 316 317 318 318 317 317 316 304 306 335 332 328 330 317 312 311 302 294 297 296 296 295 298 301 303 303 302 303 304 303 301 306 307 312 330 331
315 316 315 316 315 315 315 315 316 316 316 317 317 316 317 310 293 309 335 335 331 324 316 310 304 297 294 292 297 293 300 301 302 304 303 301 303 302 302 302 306 309 310 311 321
316 315 315 315 315 314 314 315 315 315 315 315 315 316 311 302 302 314 330 330 329 320 312 307 301 297 294 296 296 296 298 302 303 303 302 303 301 302 302 307 308 308 309 308 308
316 316 315 315 315 315 315 314 314 314 314 314 314 315 307 296 312 316 317 322 318 314 309 306 300 301 297 296 295 298 300 301 301 301 302 300 300 301 303 307 306 306 306 306 307
316 316 316 315 315 315 314 314 313 314 313 313 313 311 306 300 314 316 312 318 317 313 308 309 306 302 301 295 300 299 295 298 301 300 300 302 297 299 303 305 303 304 305 306 307
316 316 316 316 315 315 314 314 313 314 314 314 314 309 300 313 314 313 314 314 319 315 312 311 307 303 301 301 300 295 295 290 296 299 300 299 293 299 303 302 302 304 305 306 305
314 314 315 315 315 314 313 313 313 313 315 315 310 307 298 316 309 313 313 312 313 311 311 311 306 302 301 296 291 293 288 289 293 298 298 297 295 300 303 302 302 303 304 305 304
313 313 313 314 314 313 312 312 312 313 311 313 310 302 305 301 312 315 315 316 311 309 304 305 302 297 295 292 286 288 289 292 292 297 298 296 295 299 302 302 302 302 303 304 304
313 313 313 313 313 312 309 303 300 301 306 301 302 303 305 311 315 313 315 313 312 306 299 303 295 292 294 296 296 295 293 293 296 300 298 296 296 298 302 302 301 302 302 302 303
311 312 312 312 312 311 307 299 303 303 297 305 306 307 309 311 304 309 315 306 305 298 301 298 294 299 300 299 297 295 292 292 297 301 299 297 296 301 303 302 302 303 303 303 303
310 310 311 311 311 307 303 306 313 310 297 299 303 303 304 308 304 305 310 307 303 300 299 294 298 303 299 296 295 293 291 292 293 299 301 298 295 298 304 305 306 306 306 304 303
310 309 310 310 304 302 298 305 309 308 287 291 296 302 304 305 300 310 311 308 304 300 301 298 302 300 297 294 295 290 297 297 296 295 290 298 285 295 300 301 304 304 302 303 305
309 309 309 309 301 297 302 307 308 303 276 295 299 309 306 301 303 304 311 308 300 302 302 297 298 297 294 294 297 293 299 297 296 294 292 293 287 292 299 300 302 302 303 303 304
308 308 308 303 302 303 307 307 304 287 277 290 297 297 300 300 300 305 305 308 308 302 301 300 304 300 298 299 298 299 297 297 295 290 284 290 290 290 295 299 301 303 304 306 307
308 308 305 304 297 304 306 303 288 282 293 289 292 295 295 297 300 302 299 298 295 292 293 298 298 301 302 296 298 296 292 286 284 283 282 293 289 290 299 304 305 304 304 305 311
307 305 304 305 307 306 302 293 280 287 289 295 293 294 291 295 296 297 294 295 300 297 292 290 289 297 302 297 294 293 292 285 279 281 284 293 287 293 302 305 308 309 306 311 314
305 301 302 305 309 307 299 286 284 288 292 292 292 288 289 294 297 296 292 294 297 300 291 290 290 301 301 301 299 294 291 295 290 292 287 289 292 300 304 305 305 307 309 308 312
299 299 300 307 311 305 293 288 289 294 295 294 287 291 287 291 292 293 293 298 297 301 302 295 290 299 300 301 302 298 298 290 289 282 282 288 292 292 300 301 306 305 307 313 315
298 292 300 309 310 297 288 288 292 297 297 293 290 290 291 290 293 291 293 298 302 301 303 298 296 294 299 296 294 295 294 293 291 289 283 282 289 302 301 301 304 307 309 311 314
295 286 301 307 292 293 290 290 295 295 299 297 297 295 291 294 291 293 293 297 303 303 296 299 296 290 292 300 302 300 294 294 287 287 290 287 290 306 304 307 306 306 310 313 313
292 292 304 303 284 286 291 292 295 294 295 293 294 296 296 293 290 294 296 302 302 301 297 300 293 285 290 294 298 296 298 295 294 294 289 285 288 305 307 306 310 308 308 311 314
294 288 293 296 294 289 288 289 289 296 295 296 295 296 292 293 297 293 295 300 303 301 303 303 294 290 285 290 296 294 297 296 295 287 290 292 294 300 303 304 307 308 310 311 312
295 290 293 285 287 289 291 291 288 289 295 296 293 293 291 288 292 292 295 295 300 303 302 301 291 295 297 298 298 297 297 296 295 296 291 295 296 299 302 305 306 308 309 309 310
291 290 293 288 290 289 291 288 289 290 292 292 291 293 293 290 292 291 294 291 294 299 298 299 291 295 294 297 298 296 298 298 300 299 298 297 297 304 306 309 308 308 308 308 310
297 298 293 289 288 287 288 289 289 292 293 293 295 293 292 293 296 297 299 298 299 298 294 295 294 291 289 295 294 290 296 299 300 300 299 294 299 304 304 305 306 309 308 308 306

GFSSW_sfc_thetae_120.txt.gz
Theta_e
317 316 316 316 317 316 315 315 316 315 315 316 317 318 317 316 317 309 303 309 313 320 324 312 310 307 303 296 299 299 289 286 289 292 294 300 298 304 309 309 312 314 316 340 341
316 316 316 316 316 317 316 316 316 315 316 316 316 317 317 317 308 304 313 320 322 328 314 307 305 303 295 295 296 294 290 290 296 298 295 299 298 300 303 304 309 312 341 342 340
316 316 316 316 315 316 315 315 315 316 316 317 316 316 315 314 302 304 327 328 324 324 317 312 309 301 292 292 293 292 293 297 296 300 300 301 301 302 301 300 304 303 329 339 338
316 316 316 315 315 315 315 314 314 314 315 315 315 316 316 308 288 308 335 333 333 321 316 311 305 298 291 290 293 290 297 298 297 300 300 300 301 300 301 302 306 306 313 330 331
316 316 316 316 316 316 315 314 314 314 314 314 314 314 310 300 300 311 323 324 325 318 313 307 302 296 292 292 293 291 293 297 300 300 300 301 300 300 300 305 307 306 307 307 320
315 315 315 316 316 316 315 315 315 314 314 313 313 313 304 292 307 311 313 315 322 314 312 308 303 301 294 294 292 294 296 296 297 297 299 299 300 298 302 305 305 304 303 304 310
314 314 314 315 315 315 315 314 313 314 313 313 313 310 301 297 309 311 309 307 316 316 311 312 309 301 297 293 297 296 293 295 296 297 295 299 296 298 302 304 303 303 303 303 304
313 313 314 314 315 315 314 313 313 313 313 313 314 309 296 308 310 308 309 309 311 318 314 312 310 303 294 297 297 292 291 288 292 295 297 297 292 300 301 300 301 302 303 303 303
312 312 313 312 313 314 313 313 313 314 313 313 309 304 296 312 307 311 311 306 311 314 312 313 306 299 296 291 289 289 286 285 289 294 296 294 294 298 301 300 299 300 300 302 302
311 311 311 311 311 312 311 311 311 310 310 311 310 301 303 301 308 313 313 310 308 311 307 305 298 291 292 288 284 286 285 288 289 293 294 293 293 296 300 299 299 299 300 300 301
311 311 311 311 311 310 307 303 296 295 301 299 300 300 303 308 312 306 312 308 308 304 295 296 291 289 291 293 293 293 290 289 292 296 294 293 294 295 298 297 297 297 298 299 300
309 310 310 310 310 309 306 299 298 300 295 303 304 304 306 306 300 304 309 304 303 297 298 293 290 296 299 297 295 293 291 290 293 296 295 294 293 297 298 297 299 300 300 300 299
309 309 309 309 309 303 299 299 305 303 292 297 301 301 302 305 299 300 305 304 301 298 297 293 296 301 298 296 294 292 291 290 290 295 296 294 292 295 299 300 301 301 301 301 300
309 308 308 308 300 298 294 299 303 304 286 290 293 298 301 303 297 306 307 303 302 298 299 296 300 299 297 295 295 289 296 295 293 291 285 294 285 292 297 299 301 301 301 302 301
308 308 308 308 298 295 298 300 303 298 274 291 295 308 304 298 301 302 308 303 299 299 301 295 297 296 296 296 298 292 297 295 294 291 287 290 286 290 295 295 298 300 300 300 302
308 308 308 301 297 299 302 301 298 286 276 288 295 294 294 298 300 302 303 306 305 300 302 300 304 300 299 301 300 299 295 294 293 291 282 289 288 288 291 296 299 301 302 301 301
307 307 305 303 293 298 299 296 283 278 291 288 290 293 292 291 295 297 296 296 294 290 291 298 299 303 303 298 299 296 290 282 281 280 281 290 287 289 295 299 301 300 300 303 303
306 306 302 301 300 301 300 292 279 286 287 293 292 292 288 292 295 297 295 292 297 296 292 290 288 299 303 296 293 293 290 281 277 278 282 291 284 290 299 301 304 303 303 308 308
305 298 297 299 309 304 297 284 285 287 291 290 291 287 288 292 293 294 292 292 296 298 291 290 290 301 302 301 299 293 288 292 287 289 285 287 292 300 303 303 306 306 309 308 315
298 293 294 300 306 304 292 287 288 293 294 293 286 289 285 289 290 291 292 297 295 300 301 295 288 298 300 301 301 296 296 288 289 282 280 286 290 290 298 301 306 306 307 311 317
292 288 295 301 304 293 285 286 289 295 295 292 289 288 289 288 291 290 292 298 300 299 301 298 292 294 299 296 293 293 291 293 291 288 281 281 287 299 299 301 305 306 309 310 311
294 283 297 299 286 287 286 289 294 294 296 294 293 291 289 291 290 291 292 296 303 303 295 298 294 287 291 298 301 296 293 291 287 283 287 287 286 303 304 307 306 308 310 311 313
290 287 298 296 279 284 289 290 292 291 292 293 292 295 294 291 287 292 295 302 302 299 299 300 294 285 288 293 297 294 296 293 291 289 286 283 287 303 306 305 307 307 310 311 310
293 286 287 289 288 285 285 287 287 294 293 293 293 296 292 290 294 292 293 300 302 301 303 301 295 288 284 288 293 292 295 295 291 285 288 289 292 298 301 304 306 307 307 310 310
289 286 290 282 285 285 287 288 286 286 292 294 291 292 292 287 288 292 294 295 301 303 300 298 291 291 295 297 298 297 295 296 291 292 288 293 294 298 300 303 305 307 309 308 307
285 288 291 288 287 286 287 286 286 288 288 288 288 290 292 289 288 287 292 290 291 299 296 298 292 293 294 298 297 296 298 298 297 297 297 297 295 302 304 306 306 307 307 306 304
295 296 292 289 284 285 285 286 287 289 291 292 290 290 290 292 294 295 296 296 297 296 295 295 294 290 288 294 295 291 296 298 299 300 299 294 298 302 303 305 305 306 305 302 303

GFSSW_sfc_thetae_123.txt.gz
Theta_e
317 316 316 316 316 316 316 315 315 316 316 315 315 315 315 316 315 308 301 307 311 319 321 310 309 307 302 296 297 298 288 284 287 290 292 297 296 302 305 302 303 311 325 337 341
316 316 316 316 316 316 315 315 315 314 314 315 316 316 314 315 306 302 312 317 320 322 313 306 303 301 295 294 294 292 286 288 294 295 293 297 297 299 300 300 302 305 338 339 338
315 315 315 315 315 316 315 315 315 315 314 314 313 315 315 313 300 299 319 321 321 321 313 309 307 299 292 291 291 291 289 294 296 299 298 298 298 301 297 296 301 301 333 335 337
314 315 314 315 315 316 315 315 315 315 314 314 313 313 315 307 286 303 333 330 331 319 316 308 304 297 289 289 291 288 293 296 296 298 298 297 300 299 299 300 303 304 336 336 334
313 313 313 313 313 314 314 314 314 314 314 312 313 313 309 298 297 308 319 315 323 315 311 306 299 297 290 290 290 287 290 295 299 298 297 298 297 297 299 302 305 304 317 334 333
312 312 312 313 313 314 314 314 314 314 313 313 312 312 304 291 304 307 307 309 317 313 309 306 302 299 295 292 290 292 292 294 294 293 294 296 298 297 300 303 303 303 302 305 307
312 312 312 312 312 313 313 312 312 313 313 313 313 308 301 296 306 306 306 302 307 315 309 311 307 302 298 291 296 293 291 293 293 295 292 295 293 295 300 302 301 301 301 301 305
311 312 310 311 311 312 312 312 311 312 312 313 314 307 296 307 309 306 306 304 306 306 308 314 310 300 293 296 295 291 290 286 289 293 294 295 290 298 300 300 299 301 301 301 302
311 311 310 309 309 310 311 310 312 311 312 312 307 304 294 310 305 307 306 302 304 308 308 315 308 299 296 290 287 287 281 284 287 292 293 293 289 297 299 298 298 299 300 301 300
310 310 310 310 309 310 309 309 309 309 309 309 308 298 300 298 306 309 311 307 303 305 304 307 298 294 292 288 282 283 283 285 286 291 291 291 290 294 297 297 297 297 298 299 300
308 309 309 309 310 309 305 301 294 293 298 296 297 298 300 305 309 307 310 306 304 305 297 301 293 288 292 293 291 290 288 287 289 294 292 290 290 292 296 295 295 295 295 297 298
308 308 309 309 309 308 305 297 297 297 290 299 299 300 303 304 298 302 308 300 298 296 300 293 291 295 295 294 291 290 288 287 291 295 291 291 291 294 294 295 295 297 296 297 297
308 308 308 309 308 301 294 296 302 299 289 294 298 298 299 302 298 298 303 299 296 296 296 291 292 298 295 291 289 290 289 288 289 293 293 291 289 292 297 296 297 297 297 298 299
307 307 308 307 298 295 293 296 299 299 285 289 293 297 301 302 296 305 305 299 296 294 297 294 297 294 293 292 293 288 294 294 292 289 282 291 281 289 293 295 297 298 296 298 299
307 308 308 308 299 294 296 297 299 295 272 289 293 305 301 296 298 302 307 300 293 297 299 294 295 294 292 294 296 291 296 293 293 288 284 287 283 287 292 292 295 297 298 300 300
307 308 307 300 296 298 300 297 295 284 275 287 293 293 293 295 295 301 302 303 300 297 300 298 301 298 296 299 299 298 294 292 291 288 279 286 285 285 289 293 295 298 300 301 300
307 307 304 303 294 299 299 296 283 277 289 286 288 293 291 289 292 297 295 295 292 290 291 296 297 300 301 296 299 295 289 280 278 278 279 286 285 287 293 297 299 299 300 300 299
306 305 300 300 299 301 298 291 277 284 285 292 292 291 287 291 294 296 293 291 296 294 291 289 287 298 301 297 293 292 289 279 275 276 279 289 283 288 299 305 306 308 308 307 298
305 297 295 297 300 299 292 283 284 287 291 289 289 286 286 290 291 294 292 292 293 295 290 289 289 300 302 302 299 293 288 290 285 287 282 285 288 298 306 305 308 312 315 316 318
296 290 292 298 302 297 289 285 286 290 292 291 286 288 285 287 287 291 291 296 294 299 300 295 289 298 301 303 301 294 294 285 286 279 279 285 288 289 297 301 306 308 309 312 315
293 286 294 300 299 289 281 286 289 294 294 290 289 287 288 288 288 288 290 296 299 299 301 297 293 293 297 295 294 294 291 290 288 285 280 281 286 297 299 303 305 307 309 310 311
295 283 294 296 283 284 284 287 292 292 294 293 294 289 288 289 288 288 290 294 302 300 294 298 294 288 291 297 299 295 291 291 282 282 285 285 286 301 303 306 307 308 309 310 311
291 290 296 293 278 281 286 287 291 289 290 291 290 293 293 290 287 291 293 300 302 300 297 298 292 285 287 294 297 294 295 291 289 289 285 284 285 301 305 306 307 307 307 307 305
292 284 286 287 289 283 283 285 286 291 290 290 291 293 290 290 292 290 292 298 302 300 304 301 295 286 282 287 292 291 294 293 290 283 286 286 290 298 301 303 307 306 307 306 306
286 282 290 283 285 285 285 286 284 285 290 291 289 289 288 287 289 288 292 294 300 303 300 297 291 291 293 295 295 294 294 294 291 290 288 291 293 298 302 304 306 307 308 306 305
286 287 290 287 287 284 285 285 284 286 288 287 287 289 289 288 288 286 289 291 292 298 296 296 291 293 292 297 297 293 295 297 294 293 293 295 294 300 305 305 304 305 305 302 301
295 296 291 287 286 284 284 286 286 288 289 291 290 288 287 291 292 294 295 294 294 293 294 293 292 290 287 295 294 290 294 296 296 298 297 292 296 303 303 304 305 306 303 300 301

GFSSW_sfc_thetae_126.txt.gz
Theta_e
316 316 316 316 316 316 316 315 315 315 315 314 313 314 315 314 314 306 299 305 309 317 322 311 312 310 302 296 296 295 286 282 285 287 289 296 294 299 302 300 301 305 322 331 340
314 314 314 315 315 316 315 316 315 315 315 314 314 313 313 315 305 301 310 316 318 318 311 306 302 301 296 295 293 291 285 286 292 293 291 295 293 296 298 298 300 302 328 337 340
313 313 313 313 313 313 314 315 315 314 314 313 313 313 313 312 295 297 319 320 319 319 313 308 304 298 293 291 292 290 288 291 294 297 297 296 297 298 296 295 298 299 325 334 337
312 312 312 312 313 312 312 313 314 314 314 313 313 313 314 305 285 299 330 321 321 317 313 306 300 293 291 289 291 287 291 294 294 297 297 296 299 297 297 298 301 301 315 334 335
311 312 312 312 312 312 312 312 312 313 313 313 313 312 308 296 296 306 317 312 316 314 310 302 299 295 289 290 290 286 289 293 297 296 295 297 295 295 296 300 302 302 320 333 333
310 310 311 311 310 311 312 312 312 311 311 312 312 313 303 291 304 305 305 306 314 311 309 305 300 298 294 290 292 292 292 293 292 293 294 296 297 296 297 301 301 300 301 328 333
311 310 309 309 309 309 311 310 310 311 310 312 312 309 300 296 306 304 303 301 305 312 307 310 306 301 296 291 296 292 289 290 291 293 291 293 291 293 298 300 299 300 300 301 319
310 309 309 309 309 309 310 310 310 310 310 311 312 307 296 306 308 305 305 303 304 304 302 305 309 300 294 295 293 290 290 286 289 291 292 293 287 293 297 298 298 300 300 300 300
309 309 308 308 309 309 310 310 310 310 311 313 307 303 293 308 303 306 306 301 303 303 303 309 308 299 295 289 286 286 280 283 286 290 292 290 287 295 297 297 297 298 299 300 300
309 309 309 308 308 310 309 308 308 308 308 308 307 297 298 296 304 307 308 305 302 300 298 298 302 294 293 289 283 282 282 283 285 290 289 288 286 292 294 296 295 296 297 298 299
307 308 308 309 309 309 305 300 292 289 295 295 296 297 297 303 306 305 308 302 301 298 289 296 296 290 292 294 293 288 286 286 287 291 289 289 288 290 293 293 293 294 295 296 297
307 306 307 308 308 308 303 295 296 293 287 294 294 294 298 300 294 298 304 298 296 293 295 294 291 297 297 295 293 291 286 286 290 292 290 289 289 292 293 293 294 294 295 295 296
307 307 308 308 307 298 292 294 299 297 286 290 295 294 296 299 294 296 301 297 294 292 293 290 293 300 295 293 291 290 287 286 287 292 291 289 287 290 294 295 296 295 296 296 297
307 307 308 307 299 294 293 297 296 297 283 287 292 296 300 300 295 303 304 298 293 289 294 293 298 297 294 290 291 286 291 291 290 288 282 289 279 286 291 293 295 296 295 295 296
307 307 308 307 299 293 297 295 296 296 272 286 292 303 300 295 296 300 306 300 291 290 294 293 294 293 292 292 292 288 293 291 291 286 283 285 281 284 290 291 294 296 296 296 297
307 307 307 299 294 297 299 296 295 285 274 285 292 292 292 294 293 298 302 302 300 294 294 295 300 297 293 296 294 295 292 291 289 286 279 284 283 282 287 291 294 296 297 298 298
306 307 303 302 293 296 297 294 281 276 288 284 288 291 290 289 290 296 295 294 289 285 286 293 294 298 298 291 296 294 287 278 278 278 278 284 282 284 291 297 299 298 299 298 300
305 305 299 299 298 297 297 289 277 283 284 292 291 290 287 290 291 294 293 290 295 292 287 286 285 295 298 294 291 291 288 278 274 276 277 286 280 286 302 307 311 311 304 310 314
304 294 293 295 298 296 293 280 282 286 288 288 288 286 286 290 290 289 290 290 293 295 289 287 287 298 300 298 296 291 287 288 282 282 279 282 286 297 305 306 310 311 313 314 317
296 289 290 297 300 295 287 282 285 290 291 290 285 289 284 287 287 286 288 294 293 296 296 293 286 297 298 302 299 295 295 285 285 277 276 281 284 285 297 302 306 307 308 310 315
291 286 293 299 296 287 276 282 286 292 291 288 287 286 286 286 288 287 288 294 296 296 298 293 292 292 297 295 293 294 291 290 287 282 278 280 284 295 301 304 304 308 310 309 310
293 280 293 294 282 282 282 285 290 290 291 291 290 289 287 288 287 288 287 293 300 298 292 297 293 287 291 298 301 296 291 289 283 280 283 283 285 300 305 307 308 308 308 306 306
289 287 294 292 279 281 286 285 289 288 288 289 287 291 292 288 285 290 291 298 300 298 294 296 291 285 286 292 298 294 291 291 287 287 284 282 288 305 307 307 308 305 304 304 304
288 283 285 286 286 284 283 284 284 289 289 289 289 291 289 286 291 286 290 295 297 300 303 299 294 287 283 286 292 289 291 293 289 283 284 285 293 300 303 304 305 304 304 304 305
285 281 289 282 283 285 286 285 284 283 289 290 288 288 287 284 287 287 290 291 296 302 300 296 287 291 292 294 294 293 292 292 290 289 286 290 294 299 302 304 305 305 305 304 304
283 286 290 286 287 284 285 284 284 286 286 285 286 289 288 285 286 284 288 289 290 293 296 295 287 293 291 294 294 292 294 294 294 293 294 295 294 304 306 307 305 305 304 303 302
294 296 290 286 284 283 285 285 286 287 288 290 289 287 286 288 291 291 292 292 292 291 291 293 287 289 286 294 293 289 295 295 296 297 297 292 296 304 303 304 304 302 301 301 298

GFSSW_sfc_thetae_129.txt.gz
Theta_e
314 313 313 313 313 313 313 314 315 315 315 316 316 315 315 314 315 309 302 308 311 316 320 317 316 312 308 304 303 302 295 292 294 294 296 302 301 305 308 306 307 309 318 335 348
313 313 313 313 312 312 313 313 314 314 313 314 314 314 314 313 307 303 311 314 317 319 312 309 308 308 303 303 301 300 295 295 298 299 298 300 301 304 304 305 305 308 312 338 347
312 312 313 312 312 312 312 313 313 313 314 313 313 313 313 312 299 299 319 320 318 318 314 312 309 305 300 300 299 299 295 299 298 301 302 301 301 304 302 301 306 306 309 330 342
311 311 311 311 311 311 311 311 312 312 312 311 312 313 312 307 290 309 325 318 319 318 315 308 305 301 299 296 300 295 298 300 300 301 302 300 303 301 303 304 307 308 309 326 335
310 311 310 310 310 310 310 310 310 311 311 311 311 312 309 298 298 307 320 311 310 316 311 306 302 301 297 298 297 295 298 299 301 301 301 302 301 301 302 306 308 308 309 311 331
309 309 309 309 309 309 310 310 310 310 310 310 310 311 303 291 305 308 307 306 309 314 311 309 304 304 300 298 297 299 298 298 299 300 301 299 299 301 303 307 306 307 308 309 326
309 309 309 309 308 309 310 310 310 310 310 311 310 306 299 296 307 308 307 307 310 315 309 312 309 303 303 298 301 300 295 296 298 299 298 299 295 297 303 305 304 306 307 309 317
309 308 308 308 308 309 310 310 310 310 310 311 311 304 294 307 310 307 308 305 307 307 306 309 313 306 302 302 298 296 296 292 298 297 298 297 293 299 303 303 303 304 306 308 310
308 309 307 307 308 309 309 308 309 309 310 312 307 303 295 308 304 308 308 302 305 305 306 308 310 305 303 297 294 294 291 292 294 298 298 295 294 300 303 302 303 305 307 308 310
307 308 307 307 308 308 308 309 308 309 309 308 307 297 299 296 304 307 310 306 302 302 299 300 301 299 298 295 288 291 289 291 292 296 297 296 294 299 301 301 302 305 307 307 309
307 308 308 307 307 307 306 302 295 294 297 296 295 295 295 302 306 307 308 303 303 299 291 297 294 291 295 297 297 296 293 292 294 297 295 295 296 296 301 301 301 303 305 306 308
307 307 308 307 309 308 303 296 296 296 287 294 294 294 298 300 292 296 305 298 298 293 295 293 290 297 299 298 296 295 291 291 295 297 295 296 295 298 300 301 303 304 305 307 308
307 308 308 308 308 302 298 296 301 300 288 289 294 293 294 297 292 295 300 296 294 291 293 290 294 298 297 296 294 294 293 291 291 296 296 295 294 297 300 302 304 305 307 309 309
307 307 308 307 303 301 299 301 301 300 284 287 293 297 300 301 295 302 304 299 294 291 293 292 296 295 294 294 296 291 297 294 293 292 288 296 288 295 299 300 302 305 306 307 309
307 307 307 306 300 297 301 302 302 299 275 289 293 305 302 297 297 297 306 301 294 292 294 292 294 292 291 294 298 294 298 295 294 292 292 292 289 295 297 297 300 305 307 308 310
307 307 307 302 301 301 303 302 299 285 275 286 293 293 293 295 296 298 301 304 301 295 294 293 302 297 298 299 299 300 296 296 295 293 286 291 290 292 295 298 301 305 307 309 309
307 306 304 303 297 303 302 299 285 278 289 286 287 292 291 291 293 294 296 294 292 287 286 290 292 299 299 297 299 295 292 284 283 283 285 293 290 293 299 302 305 307 308 306 308
305 304 301 301 302 300 300 293 278 284 285 290 290 290 287 291 291 293 292 291 296 294 290 286 283 293 299 295 294 293 292 286 279 281 285 290 287 293 304 312 314 311 313 316 315
304 300 299 301 302 302 297 283 281 284 288 288 288 286 287 290 290 290 290 291 294 296 288 287 287 296 300 300 298 292 289 296 290 291 287 289 293 304 308 310 312 313 317 319 319
299 295 297 302 303 300 290 282 285 289 290 288 282 288 285 287 288 289 289 294 293 297 298 293 286 295 297 300 300 296 298 289 291 282 282 287 290 294 303 305 308 309 311 313 313
297 291 298 302 302 294 282 282 286 290 291 286 286 285 287 286 287 288 289 293 296 294 296 295 288 288 295 292 294 294 291 293 293 292 286 284 289 304 305 307 307 308 310 309 309
295 287 299 300 288 289 284 286 290 289 291 289 291 288 287 287 287 287 289 292 299 295 290 296 289 287 291 298 302 298 295 295 289 287 291 292 293 305 308 307 308 306 307 307 308
291 290 300 298 282 283 287 287 289 288 288 289 287 290 291 287 283 289 289 297 296 296 294 290 288 286 287 292 298 295 296 297 296 295 289 291 292 307 308 307 305 304 305 306 306
291 285 290 292 291 285 283 285 285 291 289 290 288 291 289 286 288 285 288 293 295 296 302 297 290 291 287 289 292 292 295 297 295 290 291 295 295 302 305 303 303 304 306 306 306
292 287 289 283 284 285 287 286 284 284 290 291 288 288 286 283 285 287 288 289 293 297 297 296 287 294 296 295 294 294 294 295 293 294 292 297 299 301 304 303 303 305 305 305 305
289 287 290 286 287 285 286 285 283 285 286 285 286 287 288 284 286 284 288 287 287 292 291 295 286 293 292 296 295 292 295 295 295 295 298 300 298 306 307 306 304 306 305 303 302
297 297 290 286 285 284 284 284 284 287 289 290 287 286 286 288 291 291 291 291 290 288 289 289 287 292 289 295 293 288 294 295 296 298 300 297 302 306 303 303 304 303 302 300 299

GFSSW_sfc_thetae_132.txt.gz
Theta_e
313 313 313 313 313 313 313 313 314 314 314 315 315 315 316 315 315 312 307 314 316 321 317 319 319 315 315 312 310 310 300 299 301 300 302 306 304 309 312 310 312 315 318 329 339
312 312 312 312 312 312 312 313 313 313 313 313 314 314 315 314 310 307 316 316 318 318 314 312 311 314 310 310 308 304 301 302 306 307 304 306 306 307 307 307 308 312 316 329 338
312 312 312 312 311 311 311 311 312 312 312 312 312 313 313 313 304 305 323 322 317 318 314 313 313 312 307 309 308 305 302 308 307 307 307 306 305 307 306 305 309 309 313 320 330
311 311 311 311 311 311 311 311 311 312 311 311 311 311 312 309 293 313 322 321 320 318 313 310 309 307 304 303 308 301 306 307 309 308 305 304 307 306 306 308 311 313 315 314 325
310 310 310 310 310 310 310 310 311 311 311 311 311 311 309 302 302 316 326 316 315 319 313 308 306 306 301 304 305 303 304 307 307 307 307 307 305 305 306 310 311 312 312 313 315
309 309 309 309 309 309 310 311 311 310 310 311 311 310 304 293 307 310 311 314 313 317 315 312 305 307 304 304 303 305 304 305 305 306 307 304 305 306 307 310 310 310 311 312 315
309 308 308 308 308 309 310 310 310 311 310 311 312 308 300 299 308 310 310 309 312 312 311 316 312 306 306 303 307 304 300 302 304 305 303 305 301 302 308 309 308 310 311 312 315
308 308 308 308 308 310 310 310 310 310 311 311 311 306 295 308 311 308 309 307 310 312 313 315 314 310 306 308 303 301 301 297 303 304 305 303 297 304 309 308 307 308 310 311 314
308 309 308 308 309 309 310 309 310 311 312 311 308 303 296 311 306 310 311 306 308 308 309 313 312 308 307 301 298 300 295 296 300 305 303 302 299 305 306 308 307 309 310 310 313
307 308 308 308 308 310 310 310 311 311 312 311 307 297 302 300 306 309 314 310 305 305 303 306 306 301 302 299 292 295 296 299 299 303 302 301 300 304 307 306 307 309 310 310 312
307 308 308 309 309 309 309 308 302 301 302 297 298 299 300 304 308 304 311 307 307 302 296 301 296 294 298 301 301 300 300 298 301 304 301 300 302 303 306 306 306 308 310 311 312
307 307 308 309 309 309 309 301 301 302 292 301 300 298 300 301 296 298 310 302 302 297 299 296 292 298 300 301 299 299 297 298 301 302 300 301 300 304 306 306 307 308 309 310 312
308 308 308 309 308 308 305 302 306 302 292 296 298 297 300 301 293 294 300 301 298 296 295 294 296 300 298 298 297 297 297 297 297 300 302 300 298 302 305 307 308 309 310 312 312
307 308 308 308 305 306 302 306 307 303 288 291 295 300 302 302 295 305 303 298 295 293 295 296 300 298 296 296 298 294 300 299 297 296 293 300 293 300 303 305 306 308 309 310 313
307 308 308 307 305 302 304 309 308 300 278 293 295 307 303 298 300 299 306 302 294 294 294 292 293 294 295 296 300 297 301 299 299 296 297 296 293 300 304 302 305 307 309 311 313
307 307 307 307 307 306 308 308 305 286 278 289 295 293 294 297 298 301 301 305 303 297 297 296 301 298 296 299 301 302 299 299 299 297 290 296 295 297 300 303 306 308 309 311 312
306 306 306 306 301 307 309 304 288 283 291 288 289 293 292 293 293 296 296 296 294 290 290 294 295 299 301 295 300 298 293 286 285 286 288 297 295 298 304 305 307 308 310 312 314
305 305 307 306 308 309 306 296 281 286 287 292 291 291 288 292 293 293 294 291 296 295 291 288 286 296 299 296 294 297 296 290 284 286 289 296 292 298 305 310 314 315 314 315 315
304 307 304 306 307 309 299 286 284 286 289 287 289 287 288 290 290 291 293 293 296 298 290 289 289 299 299 302 300 295 294 300 294 295 292 294 298 305 307 310 313 316 317 315 315
303 303 301 307 309 304 293 283 287 290 291 291 284 288 285 287 286 288 292 296 295 298 300 294 289 297 298 301 301 299 301 291 294 286 285 292 294 296 304 308 313 316 314 316 318
303 297 302 307 306 298 285 285 288 292 293 289 287 286 286 286 287 287 291 295 296 295 296 293 292 293 296 294 295 296 294 295 297 295 289 288 294 307 307 312 313 310 311 312 313
300 292 303 306 293 292 286 287 291 290 293 292 292 290 288 289 287 287 287 291 296 294 288 294 293 288 293 300 302 298 297 297 291 292 295 295 297 312 313 313 309 308 309 310 311
295 297 304 302 285 285 290 288 290 290 291 291 289 291 293 289 284 288 289 296 297 289 290 293 291 284 287 294 297 296 298 299 300 299 294 292 296 310 308 307 307 306 306 307 309
295 290 296 298 294 287 285 288 287 293 292 292 291 293 290 287 290 286 287 292 295 293 300 296 290 289 288 290 294 292 297 298 298 293 295 296 299 305 304 304 306 306 307 307 308
295 290 291 287 289 287 288 288 285 285 291 292 290 291 287 283 284 288 290 289 293 295 294 291 286 296 298 297 296 297 297 297 295 296 293 301 301 303 304 305 305 306 307 307 308
292 290 293 288 291 288 289 287 286 287 288 288 288 290 288 285 287 283 287 287 287 294 291 292 287 294 295 297 296 294 297 297 298 297 299 303 300 306 307 306 304 306 307 306 308
297 298 292 288 290 288 287 287 287 290 291 291 289 288 287 289 291 291 291 291 290 288 288 288 288 293 290 295 294 288 296 296 298 301 303 299 300 304 303 304 305 304 305 305 306

GFSSW_sfc_thetae_135.txt.gz
Theta_e
313 313 313 313 313 313 313 313 313 313 314 314 314 315 316 317 316 313 307 316 319 324 318 315 318 315 319 316 316 314 304 301 302 303 305 311 309 313 316 314 317 321 322 329 345
312 312 312 312 312 312 312 312 312 312 313 313 313 314 313 315 310 307 316 322 328 320 314 310 311 313 310 312 314 309 304 305 309 309 308 310 310 309 309 309 310 313 320 328 337
311 311 311 311 311 311 311 311 312 312 312 312 312 312 312 313 305 308 324 324 324 321 312 312 312 312 308 310 311 310 304 310 311 313 312 310 309 311 308 307 310 311 316 320 328
311 311 311 311 310 311 311 311 311 312 312 312 312 311 311 309 296 319 323 322 321 317 315 311 310 307 307 305 310 306 309 309 310 313 311 309 311 309 309 310 313 314 316 317 324
310 310 310 309 310 310 310 310 311 311 311 311 311 312 310 302 302 313 321 322 321 319 314 311 308 307 305 308 309 306 308 310 310 311 312 312 309 309 310 312 314 314 315 316 317
309 309 309 309 309 310 311 311 311 311 311 311 312 312 306 296 310 312 319 317 318 316 316 314 310 312 308 308 306 309 309 309 310 310 310 308 308 309 311 314 313 313 313 314 316
309 308 309 309 309 310 311 311 311 311 311 312 312 309 302 301 311 311 311 310 311 314 312 316 315 309 310 306 311 308 304 307 308 308 307 309 305 305 311 313 311 312 313 313 315
309 309 308 308 309 310 311 311 311 311 312 314 313 308 296 310 313 310 310 309 312 314 313 317 318 312 308 309 306 304 304 299 306 307 307 307 300 307 311 311 310 311 312 313 314
309 309 308 308 309 310 311 310 312 313 313 313 310 305 298 313 307 310 309 305 307 309 311 315 314 309 309 303 300 302 297 299 302 308 306 305 301 307 311 311 310 311 313 313 313
309 309 309 309 309 310 310 310 313 314 312 313 310 299 304 301 307 309 314 311 306 307 303 303 307 304 304 301 294 297 298 300 301 305 306 303 303 308 310 309 310 311 312 313 313
308 309 309 310 310 309 309 311 303 303 307 299 298 300 301 305 308 305 311 309 307 305 298 300 295 295 299 302 303 302 301 301 303 308 305 303 304 306 309 309 309 311 312 313 314
307 308 309 309 310 309 310 305 302 304 295 301 302 302 305 306 299 300 306 299 300 296 300 297 292 298 302 302 301 301 299 301 305 307 306 305 303 307 308 309 310 311 312 313 315
308 308 309 309 309 309 306 305 310 308 294 298 302 301 302 305 298 297 301 300 299 296 296 293 296 300 298 298 299 299 299 300 300 304 306 304 301 305 308 310 310 311 313 314 314
308 308 308 308 306 308 304 309 311 309 290 294 297 300 305 303 295 303 307 299 298 295 296 296 300 298 297 296 298 295 302 301 301 300 296 303 293 302 306 307 309 310 312 313 314
307 308 308 307 308 304 305 310 311 306 279 295 297 306 303 298 300 299 308 301 294 295 296 294 297 295 295 297 299 296 302 301 301 300 299 299 295 301 306 304 307 310 311 313 315
307 308 308 309 308 307 309 310 306 287 278 290 297 295 296 298 299 302 302 304 303 296 296 295 301 300 297 300 301 302 300 300 300 299 291 297 296 298 303 305 308 310 311 313 314
306 307 307 309 303 309 310 305 289 281 293 289 291 294 293 293 293 297 296 294 294 289 287 296 297 300 302 295 300 299 297 289 287 289 288 299 297 299 307 309 310 311 311 313 315
305 305 311 308 310 310 308 297 283 288 289 294 293 294 290 291 293 294 295 293 298 296 292 287 287 297 301 299 295 296 298 291 285 286 290 298 293 299 309 312 312 313 313 314 315
304 311 309 307 310 311 300 288 285 288 290 290 292 289 288 291 292 292 294 294 297 298 291 289 290 298 301 302 300 296 294 301 294 296 292 295 300 305 308 309 312 313 313 313 314
305 307 306 310 312 307 296 285 289 293 293 293 287 289 286 289 290 291 289 294 295 295 298 296 290 297 300 302 301 297 302 292 295 287 286 293 296 297 304 306 310 312 317 321 318
307 301 306 311 310 300 291 289 291 295 295 292 290 288 289 288 290 289 290 293 295 293 296 293 293 291 299 296 295 296 294 296 298 296 290 289 294 306 307 309 312 319 317 317 319
304 297 307 310 296 296 291 292 294 294 297 294 295 292 290 290 289 288 289 291 296 294 288 291 292 288 293 301 303 300 297 297 292 293 295 296 298 314 310 313 315 310 312 315 319
299 301 308 307 290 290 294 292 294 294 294 293 291 293 294 291 285 290 290 295 296 294 288 292 290 288 288 295 302 296 300 300 299 301 296 293 297 312 314 310 308 307 309 313 316
299 294 299 301 299 291 290 291 291 296 294 295 293 295 292 290 291 288 289 294 296 295 297 295 288 292 290 292 299 293 297 299 299 295 295 297 300 305 305 304 305 307 308 310 313
299 295 295 290 292 292 295 292 291 288 295 296 294 292 289 285 286 289 292 291 294 297 296 290 286 293 297 298 297 298 298 297 296 297 295 300 300 305 305 304 304 306 307 308 309
295 290 293 292 296 294 295 292 291 293 292 292 290 291 290 287 288 285 288 288 287 295 291 291 285 290 293 299 297 296 298 300 299 299 299 300 301 307 307 306 305 306 307 307 308
301 301 293 291 295 294 294 290 292 294 295 296 293 291 290 292 294 295 295 294 291 289 288 289 288 290 290 296 294 293 298 299 298 301 301 297 301 304 303 304 306 307 308 307 309

GFSSW_sfc_thetae_138.txt.gz
Theta_e
313 313 313 313 313 313 313 313 313 313 313 313 314 314 314 315 315 308 302 310 317 323 324 314 318 315 312 314 317 315 302 299 300 301 303 309 308 313 316 314 320 323 324 333 342
312 312 312 312 312 312 312 312 312 312 313 313 313 313 313 313 307 303 313 324 326 328 316 311 306 313 306 308 314 310 304 302 307 307 306 308 309 310 310 311 312 317 321 330 340
312 311 311 311 311 311 311 311 312 312 312 312 312 312 312 311 302 307 324 324 329 325 312 314 311 308 306 307 310 310 304 308 308 311 312 310 309 311 309 306 310 310 314 321 333
311 311 311 311 311 311 311 311 311 312 312 312 312 312 312 308 293 319 325 326 331 318 312 309 307 304 304 303 307 304 309 309 310 312 311 310 313 310 309 309 313 313 315 317 323
310 310 310 310 310 310 310 311 311 311 311 312 312 313 310 301 300 310 324 320 318 315 311 308 305 303 301 305 307 303 305 309 311 310 310 311 310 310 310 312 314 314 315 315 319
310 309 310 310 310 311 312 312 312 312 312 312 313 313 304 294 309 311 310 312 315 315 312 313 309 309 305 304 305 308 307 307 309 310 310 307 308 310 310 314 313 312 313 314 315
311 310 309 309 310 311 311 311 311 312 312 313 313 310 301 300 310 310 309 308 312 315 311 313 314 309 308 304 309 308 304 307 308 309 308 310 305 306 311 313 312 312 312 313 316
310 310 310 310 311 311 312 311 311 312 313 314 314 308 297 309 311 309 310 308 310 310 308 310 313 311 308 309 306 304 304 300 306 308 308 308 300 307 311 310 310 312 312 313 314
309 309 310 310 311 311 311 311 312 313 314 315 309 305 299 314 306 310 311 305 306 308 310 311 309 306 307 302 298 301 296 298 301 307 307 305 302 307 311 311 310 312 312 312 314
309 309 309 310 310 311 310 310 313 314 313 313 311 300 304 301 305 306 312 310 304 303 303 304 303 301 302 300 292 295 295 298 298 303 305 303 303 306 310 309 310 311 312 313 314
308 309 309 309 310 310 309 308 304 301 304 299 298 298 299 304 308 306 307 305 307 303 294 298 292 293 299 301 301 300 298 297 301 306 303 304 303 305 309 310 308 310 311 312 314
308 309 309 309 310 310 309 304 302 304 296 302 302 302 307 308 301 305 309 299 299 294 298 296 290 295 299 300 300 299 297 298 302 305 305 304 303 306 308 309 310 311 312 313 314
308 308 309 309 309 309 308 304 308 309 296 297 303 302 302 304 299 300 302 299 295 293 294 291 295 298 296 295 295 297 296 298 298 304 306 304 302 304 307 310 311 311 313 314 314
308 308 308 309 306 309 305 307 309 310 289 293 296 301 304 303 298 306 306 299 296 291 294 294 297 296 295 293 295 292 300 300 299 299 295 304 293 303 305 307 309 311 312 313 315
308 308 308 307 307 304 305 309 312 306 278 295 297 307 303 298 300 300 307 302 294 292 294 292 295 295 293 294 297 294 301 299 299 298 299 299 295 300 305 304 307 310 311 313 315
307 308 308 309 310 307 309 312 308 289 279 290 297 296 297 298 298 301 301 304 303 295 296 295 300 298 297 300 299 299 297 298 299 297 290 297 296 296 300 304 308 311 312 313 314
306 306 306 310 303 309 311 308 290 283 293 289 291 295 294 294 295 297 296 294 291 288 287 292 295 298 300 296 299 298 294 288 286 287 287 298 296 299 305 308 310 311 312 313 315
305 305 311 311 311 311 308 297 283 289 289 294 293 294 291 294 294 295 292 290 298 294 290 285 287 295 300 297 295 294 295 288 282 284 288 297 293 298 308 311 313 314 314 314 315
304 312 311 310 311 311 301 289 287 289 292 291 292 289 289 292 292 292 291 289 293 294 289 289 289 299 299 300 298 293 290 298 292 295 291 294 298 303 307 309 312 312 313 313 315
304 308 307 312 313 307 297 286 291 295 295 294 286 290 286 289 289 290 290 294 292 296 296 293 287 296 298 299 300 296 299 291 293 285 285 292 293 295 302 306 310 315 313 313 314
307 303 308 312 312 301 295 291 293 297 297 292 290 289 290 289 289 289 290 294 295 294 296 295 291 290 293 293 294 295 292 296 297 294 288 288 293 304 305 309 312 316 319 323 325
305 297 309 311 298 297 292 294 295 295 298 295 295 292 291 291 289 289 289 292 297 295 290 293 289 287 290 297 301 298 294 296 290 290 294 294 296 313 310 315 316 313 317 322 325
301 301 309 308 292 292 296 295 296 295 295 294 292 294 295 291 285 290 291 296 297 295 291 291 287 285 290 294 299 296 297 297 299 298 293 291 297 310 311 310 312 313 316 320 322
301 294 300 301 300 295 294 293 293 297 296 296 294 296 293 290 291 288 289 295 297 296 297 294 288 286 285 288 296 293 294 297 297 291 293 294 299 302 304 305 308 312 315 317 319
299 295 296 291 293 295 297 296 292 290 296 297 295 293 291 286 288 289 292 292 294 298 295 290 286 289 292 293 295 295 295 296 295 296 293 298 300 301 303 304 308 311 313 314 315
296 293 296 293 296 295 296 293 292 293 293 293 291 294 294 290 289 287 290 290 289 294 289 289 285 288 289 295 297 294 296 297 298 296 296 302 300 305 306 308 307 308 309 309 310
301 302 297 293 295 294 293 293 293 294 295 296 295 293 292 294 297 298 299 298 294 290 288 285 287 287 291 297 297 291 295 297 299 300 299 295 300 304 303 304 305 306 306 307 308